GEFSSGP_prec_meanprecacc_288.txt.gz
Total_Precipitation_Accumulation
1.58 1.55 2.43 3.60 4.21 3.34 2.94 2.73 2.28 1.98 1.53 1.23 1.01 1.04 1.45 1.83 2.05 2.38 2.48 2.53 1.66 1.46 1.72 2.31 2.93 2.76 2.52 2.44 2.48 2.42 2.17 1.83 1.58 1.54 1.56 1.50 1.43 1.42 1.38 1.40 1.39 1.42 1.43 1.44 1.62 1.90 1.93 1.86 1.82
1.22 1.90 3.01 4.11 3.72 2.87 2.91 2.62 2.23 1.83 1.31 0.97 0.81 0.81 0.92 0.89 0.80 1.33 2.53 2.72 1.63 1.31 1.49 1.80 2.63 2.59 2.52 2.48 2.28 2.24 1.99 1.65 1.49 1.46 1.42 1.34 1.33 1.38 1.48 1.49 1.47 1.50 1.41 1.30 1.37 1.75 1.91 1.87 1.79
1.68 2.60 3.61 3.86 2.92 2.67 2.88 2.59 2.11 1.40 0.99 0.87 0.81 0.73 0.82 1.05 1.11 1.67 2.43 2.00 1.48 1.30 1.53 2.17 2.71 2.48 2.40 2.27 2.07 2.07 1.95 1.69 1.57 1.51 1.43 1.40 1.39 1.36 1.47 1.51 1.53 1.58 1.47 1.41 1.52 1.92 1.86 1.81 1.74
2.14 3.12 3.51 3.18 2.57 2.27 2.28 2.21 1.85 1.36 1.03 0.73 0.73 0.81 0.80 1.16 1.34 1.65 1.82 1.47 1.31 1.33 1.53 2.13 2.43 2.17 2.05 1.99 1.93 1.85 1.90 1.88 1.66 1.50 1.47 1.49 1.48 1.53 1.60 1.63 1.56 1.63 1.59 1.62 1.75 1.96 1.94 1.85 1.80
2.57 3.17 3.20 2.96 2.59 2.30 1.93 1.78 1.67 1.52 1.21 0.86 0.81 0.96 1.24 1.75 1.67 1.53 1.52 1.34 1.20 1.16 1.27 1.70 2.12 1.93 1.83 1.82 1.82 1.74 1.82 1.91 1.78 1.51 1.58 1.61 1.58 1.65 1.75 1.75 1.66 1.70 1.71 1.77 1.95 1.98 2.03 1.95 1.83
3.04 2.96 3.03 2.98 2.81 2.47 2.04 1.55 1.41 1.43 1.13 0.90 0.90 1.05 1.64 2.12 1.98 1.84 1.55 1.56 1.36 1.20 1.15 1.32 1.72 1.78 1.66 1.69 1.84 1.74 1.74 1.83 1.76 1.63 1.63 1.55 1.59 1.71 1.81 1.81 1.70 1.64 1.71 1.83 2.03 2.02 2.02 1.91 1.88
2.92 2.79 2.80 2.45 2.57 2.80 2.17 1.36 1.40 1.40 1.27 1.05 0.81 1.04 1.56 1.89 1.75 1.67 1.52 1.54 1.56 1.48 1.35 1.21 1.23 1.39 1.51 1.62 1.76 1.72 1.68 1.68 1.61 1.67 1.69 1.74 1.79 1.77 1.70 1.71 1.66 1.66 1.74 1.77 1.87 1.92 1.92 1.88 1.89
2.36 2.43 2.39 2.38 2.59 2.74 1.98 1.23 1.10 1.26 1.20 0.82 0.85 1.15 1.41 1.40 1.35 1.36 1.44 1.61 1.62 1.56 1.43 1.21 1.09 1.10 1.23 1.26 1.48 1.69 1.75 1.70 1.58 1.63 1.74 1.84 1.84 1.76 1.70 1.60 1.70 1.80 1.80 1.88 1.87 1.82 1.83 1.87 1.81
1.96 2.43 2.70 2.75 2.66 2.34 1.58 1.28 1.04 0.92 0.91 0.83 0.82 0.92 1.01 0.92 1.04 1.18 1.18 1.24 1.36 1.30 1.22 1.14 1.10 1.13 1.23 1.26 1.31 1.61 1.69 1.62 1.44 1.41 1.61 1.64 1.49 1.53 1.68 1.74 2.03 2.00 2.01 2.04 1.95 1.87 1.84 1.70 1.69
2.01 2.42 2.50 2.03 1.64 1.58 1.36 1.21 1.10 1.15 1.19 0.98 0.91 0.93 0.97 0.95 1.00 1.05 1.04 1.05 1.08 1.02 0.92 0.90 0.92 1.00 1.13 1.17 1.53 1.78 1.60 1.53 1.29 1.31 1.29 1.37 1.42 1.62 1.58 1.74 2.10 2.04 2.02 1.97 1.97 1.89 1.67 1.33 1.17
1.68 2.06 1.76 1.51 1.25 1.05 1.11 1.11 0.89 1.07 1.28 1.05 0.96 0.91 0.98 1.06 1.02 1.02 1.00 0.89 0.86 0.79 0.72 0.67 0.63 0.65 0.74 0.97 1.32 1.62 1.77 1.77 1.75 1.55 1.34 1.37 1.18 1.13 1.13 1.21 1.38 1.44 1.51 1.46 1.53 1.52 1.26 1.13 1.12
1.62 1.60 1.43 1.40 1.03 1.00 1.00 0.95 0.90 0.94 1.04 0.93 0.99 0.88 0.89 0.98 0.98 0.94 0.95 0.89 0.78 0.76 0.72 0.63 0.58 0.54 0.58 0.64 0.83 1.09 1.27 1.38 1.45 1.35 1.17 1.24 1.13 1.05 1.06 1.07 1.07 1.07 1.17 1.31 1.31 1.31 1.20 1.09 1.03
1.69 1.66 1.34 1.10 0.97 0.92 0.86 0.83 0.84 0.93 0.88 0.79 0.90 0.97 1.00 0.96 0.94 0.99 1.06 1.02 0.87 0.85 0.86 0.76 0.63 0.57 0.58 0.63 0.69 0.79 0.98 1.12 1.13 1.18 1.10 1.10 1.15 1.15 1.11 1.01 1.01 0.93 1.03 1.18 1.28 1.25 1.17 1.19 1.17
1.50 1.48 1.50 1.30 1.09 0.99 0.98 0.85 0.75 0.92 0.91 0.87 0.96 1.05 1.01 1.01 0.91 0.90 0.95 1.01 0.95 0.91 0.90 0.88 0.76 0.72 0.69 0.66 0.69 0.77 0.87 0.93 0.91 0.90 0.91 1.02 1.12 1.12 1.11 1.08 1.10 1.07 1.10 1.23 1.25 1.16 1.22 1.31 1.25
1.36 1.61 1.63 1.44 1.17 1.06 1.07 1.18 0.89 0.84 0.94 0.98 1.07 1.00 0.92 0.95 0.89 0.86 0.85 0.87 0.92 0.89 0.85 0.87 0.86 0.87 0.84 0.79 0.74 0.75 0.85 0.92 0.91 0.86 0.78 0.82 0.94 0.98 1.03 1.06 1.05 1.10 1.21 1.28 1.34 1.17 1.21 1.22 1.17
1.70 2.06 2.19 1.59 1.31 1.11 1.28 1.46 0.98 0.92 1.00 0.98 0.97 0.90 0.85 0.86 0.83 0.81 0.84 0.81 0.81 0.76 0.75 0.82 0.82 0.85 0.88 0.89 0.89 0.91 0.92 1.00 0.95 0.92 0.81 0.77 0.84 0.93 1.07 1.09 1.05 1.07 1.23 1.36 1.44 1.36 1.36 1.34 1.30
1.94 2.00 1.90 1.56 1.25 1.13 1.18 1.16 0.90 0.92 1.00 0.88 0.85 0.80 0.75 0.72 0.71 0.69 0.73 0.77 0.76 0.70 0.70 0.71 0.76 0.76 0.82 0.88 0.91 1.02 1.05 1.08 1.02 1.01 0.90 0.86 0.93 1.04 1.22 1.31 1.29 1.26 1.30 1.34 1.34 1.44 1.49 1.47 1.46
1.61 1.50 1.39 1.32 1.09 1.03 1.03 0.87 0.73 0.78 0.84 0.78 0.68 0.63 0.61 0.62 0.59 0.59 0.62 0.66 0.68 0.68 0.66 0.65 0.70 0.72 0.74 0.85 0.96 1.14 1.25 1.23 1.24 1.15 1.06 1.06 1.21 1.37 1.53 1.51 1.59 1.63 1.55 1.56 1.52 1.57 1.54 1.47 1.54
1.06 1.16 1.18 1.10 0.83 0.84 0.84 0.70 0.65 0.67 0.70 0.69 0.62 0.54 0.52 0.55 0.53 0.51 0.53 0.59 0.60 0.62 0.64 0.63 0.60 0.69 0.72 0.76 0.90 1.13 1.41 1.52 1.62 1.54 1.34 1.27 1.39 1.67 1.91 1.87 1.95 2.02 1.94 1.91 1.91 2.14 2.07 1.78 1.60
1.04 1.23 1.20 1.08 0.76 0.70 0.70 0.61 0.53 0.53 0.60 0.57 0.55 0.53 0.47 0.48 0.43 0.40 0.42 0.45 0.46 0.49 0.55 0.58 0.57 0.64 0.70 0.74 0.91 1.09 1.25 1.25 1.41 1.53 1.49 1.42 1.41 1.56 1.71 2.00 2.13 2.11 2.21 2.33 2.32 2.69 2.81 2.31 1.87
1.02 1.04 1.02 0.99 0.80 0.69 0.64 0.67 0.50 0.46 0.49 0.46 0.43 0.46 0.41 0.42 0.42 0.39 0.38 0.38 0.39 0.40 0.39 0.42 0.47 0.54 0.66 0.80 1.02 1.24 1.45 1.52 1.56 1.47 1.55 1.57 1.48 1.52 1.65 1.81 1.96 1.99 2.13 2.31 2.43 2.75 3.30 3.04 2.38
0.95 0.70 0.64 0.70 0.89 0.95 0.76 0.93 0.61 0.50 0.52 0.47 0.41 0.38 0.37 0.38 0.40 0.45 0.41 0.42 0.40 0.37 0.34 0.36 0.46 0.60 0.80 0.99 1.22 1.47 1.68 1.72 1.59 1.59 1.62 1.51 1.43 1.40 1.52 1.65 1.77 1.89 1.94 2.11 2.21 2.35 2.93 3.33 2.99
0.64 0.54 0.52 0.60 0.79 0.78 0.59 0.71 0.62 0.49 0.59 0.54 0.47 0.42 0.37 0.36 0.39 0.41 0.40 0.43 0.43 0.42 0.42 0.47 0.66 0.88 1.14 1.35 1.61 1.90 1.88 1.76 1.64 1.61 1.60 1.54 1.53 1.49 1.49 1.64 1.72 1.73 1.81 1.94 2.27 2.55 2.85 3.09 3.11
0.46 0.53 0.59 0.66 0.84 0.83 0.52 0.59 0.64 0.48 0.50 0.52 0.50 0.45 0.37 0.33 0.40 0.48 0.54 0.63 0.69 0.71 0.85 1.03 1.28 1.44 1.53 1.65 1.82 1.93 1.88 1.87 1.80 1.62 1.54 1.54 1.58 1.63 1.64 1.69 1.72 1.70 1.74 1.86 2.10 2.41 2.64 2.97 3.21
0.46 0.77 1.11 1.15 1.12 0.81 0.42 0.61 0.66 0.45 0.37 0.38 0.41 0.37 0.31 0.36 0.46 0.61 0.78 0.92 1.05 1.19 1.34 1.47 1.62 1.75 1.70 1.67 1.75 1.80 1.77 1.74 1.70 1.63 1.56 1.50 1.51 1.56 1.59 1.65 1.78 1.86 1.91 2.02 2.20 2.37 2.31 2.51 2.93
0.48 0.70 1.16 1.30 1.08 0.76 0.56 0.81 0.74 0.52 0.39 0.31 0.25 0.24 0.35 0.50 0.64 0.76 0.85 0.97 1.15 1.32 1.39 1.39 1.48 1.59 1.57 1.53 1.54 1.54 1.58 1.57 1.50 1.41 1.38 1.41 1.50 1.49 1.43 1.47 1.57 1.70 1.89 1.95 2.02 2.08 2.04 2.14 2.40
0.46 0.51 0.56 0.81 0.69 0.69 0.74 0.88 0.77 0.51 0.42 0.34 0.29 0.32 0.48 0.70 0.91 1.07 1.19 1.30 1.34 1.40 1.48 1.40 1.38 1.44 1.47 1.42 1.36 1.39 1.40 1.44 1.42 1.33 1.32 1.30 1.29 1.22 1.14 1.14 1.22 1.30 1.39 1.49 1.64 1.75 1.86 1.92 2.05
0.37 0.49 0.65 0.96 1.10 1.09 1.00 0.99 0.87 0.64 0.56 0.56 0.63 0.72 0.77 0.87 1.15 1.45 1.73 1.89 1.70 1.45 1.39 1.39 1.31 1.32 1.43 1.44 1.38 1.35 1.41 1.40 1.37 1.37 1.29 1.27 1.26 1.17 1.08 1.03 1.00 1.00 0.96 1.00 1.20 1.41 1.53 1.64 1.81
0.38 0.53 0.68 0.89 1.01 1.30 1.49 1.41 1.06 1.04 1.03 1.06 1.14 1.19 1.20 1.30 1.28 1.45 1.69 1.88 1.78 1.46 1.24 1.29 1.35 1.35 1.37 1.37 1.39 1.37 1.33 1.22 1.20 1.23 1.19 1.15 1.14 1.18 1.14 1.04 0.98 1.07 1.06 1.00 1.07 1.14 1.21 1.29 1.45
0.48 0.61 0.79 1.14 1.07 1.07 1.35 1.42 1.12 1.09 1.10 1.17 1.33 1.39 1.38 1.29 1.19 1.19 1.27 1.35 1.41 1.27 1.08 1.05 1.21 1.31 1.29 1.28 1.32 1.30 1.19 1.09 1.07 1.06 0.98 0.86 0.81 0.82 0.92 1.01 0.95 0.92 0.95 0.96 1.02 1.04 1.09 1.14 1.26

GEFSSGP_prec_meanprecacc_294.txt.gz
Total_Precipitation_Accumulation
1.58 1.56 2.44 3.62 4.28 3.42 3.02 2.78 2.31 2.00 1.54 1.23 1.01 1.05 1.47 1.86 2.09 2.44 2.51 2.55 1.67 1.47 1.73 2.32 2.94 2.77 2.54 2.47 2.52 2.45 2.20 1.87 1.62 1.58 1.60 1.56 1.50 1.52 1.49 1.52 1.54 1.60 1.60 1.53 1.71 1.97 1.98 1.91 1.88
1.23 1.91 3.03 4.15 3.80 2.95 3.00 2.68 2.27 1.85 1.32 0.97 0.81 0.81 0.92 0.89 0.82 1.36 2.55 2.73 1.64 1.32 1.50 1.80 2.64 2.60 2.53 2.50 2.31 2.27 2.02 1.70 1.53 1.49 1.47 1.41 1.40 1.49 1.58 1.60 1.60 1.65 1.52 1.37 1.44 1.82 1.99 1.95 1.86
1.68 2.60 3.63 3.91 2.99 2.75 2.96 2.64 2.14 1.41 1.00 0.89 0.82 0.74 0.83 1.06 1.12 1.69 2.45 2.01 1.48 1.32 1.54 2.17 2.71 2.48 2.41 2.28 2.10 2.11 1.98 1.72 1.60 1.54 1.46 1.46 1.47 1.44 1.55 1.61 1.62 1.65 1.55 1.49 1.61 2.00 1.93 1.88 1.80
2.14 3.13 3.53 3.22 2.63 2.33 2.32 2.24 1.87 1.38 1.04 0.74 0.74 0.82 0.80 1.16 1.35 1.66 1.83 1.47 1.31 1.34 1.53 2.13 2.44 2.18 2.06 2.01 1.96 1.88 1.93 1.91 1.68 1.52 1.50 1.56 1.57 1.62 1.70 1.73 1.65 1.70 1.67 1.72 1.83 2.05 2.01 1.93 1.88
2.58 3.19 3.23 3.00 2.64 2.33 1.95 1.78 1.68 1.54 1.22 0.86 0.81 0.97 1.25 1.76 1.67 1.54 1.52 1.34 1.20 1.16 1.27 1.70 2.13 1.94 1.84 1.84 1.84 1.76 1.85 1.93 1.79 1.53 1.61 1.67 1.67 1.77 1.87 1.87 1.77 1.79 1.80 1.88 2.07 2.10 2.12 2.03 1.91
3.05 2.97 3.07 3.02 2.85 2.49 2.06 1.55 1.42 1.44 1.14 0.91 0.90 1.07 1.66 2.14 1.98 1.84 1.55 1.56 1.36 1.20 1.15 1.32 1.72 1.79 1.67 1.70 1.85 1.76 1.75 1.85 1.79 1.65 1.66 1.59 1.65 1.82 1.94 1.93 1.81 1.75 1.81 1.98 2.24 2.26 2.18 2.00 1.97
2.94 2.82 2.83 2.49 2.60 2.84 2.19 1.36 1.41 1.42 1.29 1.06 0.82 1.06 1.59 1.90 1.76 1.67 1.52 1.54 1.56 1.49 1.35 1.21 1.23 1.40 1.51 1.63 1.77 1.73 1.69 1.70 1.63 1.69 1.71 1.77 1.83 1.84 1.79 1.82 1.79 1.77 1.84 1.89 2.13 2.15 2.08 2.00 2.00
2.36 2.45 2.41 2.40 2.62 2.80 2.00 1.23 1.10 1.28 1.23 0.84 0.86 1.17 1.43 1.41 1.35 1.36 1.44 1.62 1.62 1.56 1.43 1.21 1.09 1.10 1.24 1.27 1.48 1.70 1.77 1.71 1.59 1.65 1.76 1.86 1.87 1.82 1.79 1.70 1.82 1.92 1.90 2.03 2.25 2.17 2.03 2.00 1.91
1.96 2.45 2.73 2.78 2.68 2.37 1.59 1.28 1.05 0.93 0.93 0.84 0.83 0.93 1.02 0.93 1.04 1.18 1.18 1.25 1.37 1.30 1.22 1.14 1.10 1.13 1.24 1.27 1.32 1.63 1.71 1.64 1.46 1.42 1.63 1.67 1.54 1.59 1.80 1.89 2.17 2.11 2.11 2.20 2.32 2.29 2.08 1.83 1.78
2.02 2.47 2.53 2.04 1.65 1.59 1.36 1.22 1.10 1.15 1.20 1.00 0.93 0.94 0.98 0.96 1.00 1.05 1.05 1.06 1.08 1.02 0.93 0.90 0.92 1.01 1.13 1.18 1.54 1.81 1.63 1.55 1.32 1.33 1.31 1.40 1.47 1.68 1.65 1.86 2.23 2.14 2.10 2.07 2.19 2.22 1.92 1.48 1.26
1.69 2.09 1.77 1.52 1.25 1.06 1.11 1.11 0.89 1.08 1.30 1.07 0.98 0.92 0.99 1.07 1.03 1.03 1.01 0.90 0.87 0.79 0.72 0.67 0.63 0.65 0.75 0.98 1.34 1.64 1.79 1.80 1.78 1.58 1.38 1.42 1.21 1.16 1.15 1.24 1.41 1.48 1.55 1.51 1.61 1.68 1.44 1.25 1.22
1.62 1.60 1.43 1.40 1.03 1.00 1.00 0.95 0.90 0.95 1.06 0.95 1.00 0.89 0.89 0.99 0.99 0.95 0.95 0.90 0.78 0.76 0.72 0.63 0.58 0.54 0.58 0.65 0.85 1.10 1.29 1.41 1.49 1.39 1.20 1.27 1.17 1.08 1.08 1.10 1.09 1.09 1.20 1.34 1.34 1.36 1.26 1.15 1.09
1.69 1.66 1.34 1.10 0.97 0.93 0.86 0.83 0.85 0.94 0.90 0.80 0.90 0.97 1.01 0.98 0.95 0.99 1.06 1.02 0.87 0.86 0.86 0.76 0.63 0.57 0.59 0.64 0.70 0.80 1.00 1.13 1.15 1.22 1.14 1.12 1.17 1.18 1.14 1.03 1.03 0.95 1.05 1.21 1.31 1.27 1.19 1.21 1.18
1.50 1.48 1.50 1.30 1.09 0.99 0.98 0.85 0.75 0.93 0.93 0.89 0.97 1.06 1.02 1.01 0.91 0.90 0.96 1.01 0.96 0.92 0.91 0.89 0.76 0.72 0.69 0.67 0.69 0.78 0.88 0.94 0.93 0.93 0.93 1.03 1.15 1.14 1.14 1.12 1.15 1.10 1.12 1.24 1.27 1.19 1.23 1.33 1.27
1.36 1.61 1.63 1.45 1.18 1.06 1.08 1.19 0.90 0.86 0.97 1.00 1.08 1.02 0.93 0.96 0.89 0.86 0.86 0.91 0.94 0.90 0.86 0.87 0.87 0.88 0.84 0.80 0.75 0.76 0.86 0.93 0.92 0.88 0.80 0.84 0.95 0.99 1.06 1.10 1.09 1.12 1.23 1.30 1.36 1.20 1.23 1.24 1.19
1.70 2.07 2.22 1.60 1.32 1.12 1.29 1.49 1.00 0.95 1.03 1.00 0.99 0.92 0.87 0.87 0.83 0.82 0.85 0.83 0.82 0.77 0.76 0.83 0.84 0.86 0.89 0.89 0.90 0.92 0.93 1.02 0.96 0.94 0.84 0.79 0.85 0.94 1.09 1.13 1.08 1.08 1.24 1.38 1.46 1.39 1.39 1.36 1.32
1.95 2.03 1.93 1.58 1.26 1.14 1.19 1.19 0.92 0.95 1.03 0.90 0.88 0.83 0.77 0.73 0.72 0.69 0.73 0.77 0.76 0.70 0.71 0.72 0.77 0.77 0.83 0.89 0.92 1.03 1.07 1.10 1.06 1.04 0.93 0.89 0.96 1.05 1.24 1.34 1.32 1.28 1.32 1.35 1.35 1.47 1.52 1.50 1.49
1.63 1.51 1.40 1.34 1.10 1.04 1.05 0.89 0.74 0.80 0.86 0.81 0.72 0.65 0.62 0.63 0.60 0.59 0.62 0.66 0.68 0.68 0.67 0.66 0.71 0.73 0.75 0.86 0.97 1.15 1.27 1.25 1.26 1.17 1.09 1.09 1.23 1.39 1.54 1.52 1.60 1.65 1.57 1.57 1.54 1.59 1.58 1.50 1.58
1.06 1.16 1.19 1.11 0.84 0.85 0.85 0.71 0.66 0.68 0.72 0.71 0.64 0.55 0.53 0.55 0.53 0.51 0.53 0.59 0.60 0.62 0.64 0.63 0.61 0.69 0.73 0.78 0.92 1.15 1.43 1.53 1.63 1.55 1.35 1.28 1.40 1.69 1.93 1.89 1.97 2.04 1.96 1.92 1.93 2.16 2.09 1.80 1.62
1.04 1.23 1.20 1.08 0.76 0.71 0.72 0.62 0.53 0.53 0.61 0.57 0.56 0.54 0.48 0.49 0.44 0.40 0.42 0.45 0.47 0.50 0.55 0.58 0.57 0.65 0.71 0.75 0.92 1.10 1.26 1.26 1.43 1.55 1.51 1.44 1.41 1.56 1.73 2.03 2.17 2.14 2.26 2.36 2.35 2.71 2.84 2.33 1.89
1.02 1.05 1.02 0.99 0.80 0.69 0.65 0.69 0.51 0.46 0.49 0.46 0.44 0.47 0.42 0.43 0.43 0.40 0.38 0.38 0.39 0.40 0.39 0.42 0.47 0.54 0.66 0.81 1.02 1.25 1.47 1.54 1.57 1.48 1.56 1.57 1.48 1.54 1.66 1.83 1.98 2.02 2.16 2.35 2.46 2.78 3.33 3.08 2.40
0.95 0.70 0.64 0.70 0.90 0.96 0.76 0.95 0.63 0.51 0.53 0.47 0.41 0.38 0.37 0.39 0.41 0.46 0.41 0.43 0.40 0.37 0.34 0.36 0.46 0.60 0.80 1.00 1.23 1.48 1.69 1.73 1.60 1.59 1.63 1.52 1.43 1.42 1.54 1.67 1.78 1.90 1.97 2.14 2.23 2.37 2.96 3.37 3.03
0.64 0.54 0.52 0.60 0.79 0.78 0.59 0.72 0.63 0.50 0.59 0.55 0.47 0.42 0.38 0.36 0.39 0.41 0.40 0.43 0.44 0.42 0.42 0.47 0.66 0.88 1.14 1.36 1.63 1.92 1.89 1.77 1.66 1.62 1.61 1.55 1.53 1.50 1.51 1.67 1.73 1.74 1.83 1.97 2.30 2.57 2.88 3.12 3.14
0.46 0.54 0.59 0.66 0.85 0.85 0.52 0.60 0.66 0.49 0.50 0.52 0.50 0.45 0.38 0.33 0.40 0.48 0.54 0.63 0.69 0.71 0.85 1.03 1.28 1.44 1.54 1.66 1.83 1.95 1.90 1.88 1.82 1.64 1.56 1.55 1.59 1.64 1.66 1.72 1.74 1.71 1.75 1.87 2.12 2.44 2.68 3.00 3.24
0.47 0.79 1.14 1.17 1.15 0.83 0.43 0.61 0.67 0.46 0.37 0.38 0.42 0.37 0.31 0.36 0.46 0.61 0.78 0.92 1.05 1.20 1.35 1.48 1.62 1.76 1.71 1.68 1.76 1.81 1.78 1.75 1.73 1.66 1.59 1.52 1.52 1.56 1.60 1.67 1.80 1.87 1.91 2.03 2.21 2.39 2.33 2.53 2.97
0.48 0.72 1.19 1.32 1.10 0.77 0.56 0.82 0.75 0.53 0.39 0.31 0.25 0.25 0.35 0.50 0.64 0.77 0.85 0.97 1.15 1.32 1.40 1.40 1.48 1.60 1.58 1.55 1.55 1.55 1.59 1.58 1.53 1.44 1.41 1.44 1.52 1.50 1.45 1.48 1.59 1.71 1.90 1.96 2.03 2.09 2.06 2.16 2.42
0.47 0.52 0.58 0.83 0.71 0.71 0.75 0.88 0.77 0.51 0.43 0.34 0.29 0.33 0.48 0.70 0.91 1.07 1.19 1.30 1.34 1.40 1.48 1.40 1.38 1.45 1.48 1.43 1.38 1.40 1.41 1.45 1.44 1.36 1.36 1.33 1.32 1.25 1.17 1.16 1.24 1.32 1.40 1.50 1.65 1.76 1.87 1.93 2.07
0.37 0.50 0.67 0.99 1.13 1.12 1.01 1.00 0.88 0.65 0.56 0.56 0.63 0.72 0.77 0.87 1.15 1.45 1.73 1.89 1.70 1.45 1.39 1.39 1.31 1.33 1.44 1.45 1.39 1.36 1.42 1.43 1.40 1.39 1.33 1.30 1.30 1.21 1.12 1.06 1.03 1.02 0.97 1.02 1.21 1.42 1.54 1.65 1.82
0.38 0.54 0.69 0.91 1.03 1.33 1.52 1.43 1.07 1.05 1.03 1.06 1.15 1.19 1.20 1.30 1.28 1.45 1.69 1.88 1.78 1.46 1.25 1.30 1.36 1.36 1.39 1.39 1.41 1.39 1.36 1.25 1.24 1.26 1.23 1.19 1.17 1.21 1.18 1.10 1.04 1.11 1.08 1.02 1.09 1.15 1.21 1.30 1.47
0.48 0.62 0.80 1.16 1.09 1.08 1.37 1.44 1.12 1.09 1.10 1.17 1.33 1.39 1.38 1.29 1.20 1.19 1.27 1.35 1.41 1.28 1.08 1.06 1.22 1.32 1.32 1.31 1.34 1.33 1.21 1.12 1.10 1.09 1.01 0.89 0.84 0.84 0.94 1.05 1.00 0.98 0.99 0.99 1.05 1.06 1.10 1.17 1.29

GEFSSGP_prec_meanprecacc_300.txt.gz
Total_Precipitation_Accumulation
1.59 1.57 2.46 3.67 4.35 3.49 3.08 2.85 2.37 2.06 1.58 1.25 1.02 1.05 1.48 1.88 2.11 2.46 2.53 2.57 1.68 1.48 1.75 2.34 2.96 2.79 2.55 2.48 2.53 2.46 2.21 1.88 1.64 1.60 1.64 1.60 1.55 1.58 1.57 1.59 1.60 1.67 1.65 1.57 1.74 2.00 2.02 1.95 1.93
1.24 1.94 3.08 4.23 3.86 3.01 3.07 2.75 2.33 1.89 1.35 0.99 0.82 0.81 0.93 0.90 0.83 1.38 2.57 2.76 1.65 1.33 1.51 1.81 2.65 2.61 2.54 2.51 2.33 2.28 2.03 1.71 1.55 1.52 1.50 1.46 1.46 1.59 1.72 1.72 1.73 1.76 1.57 1.41 1.49 1.86 2.02 1.98 1.89
1.69 2.63 3.69 3.97 3.02 2.79 3.03 2.71 2.18 1.44 1.02 0.90 0.83 0.74 0.83 1.07 1.13 1.71 2.48 2.03 1.49 1.33 1.55 2.18 2.73 2.49 2.42 2.30 2.12 2.12 1.99 1.73 1.62 1.56 1.51 1.52 1.53 1.55 1.70 1.80 1.82 1.77 1.61 1.55 1.67 2.04 1.98 1.91 1.83
2.17 3.18 3.60 3.26 2.66 2.37 2.36 2.28 1.90 1.41 1.06 0.75 0.74 0.82 0.81 1.18 1.37 1.69 1.85 1.48 1.32 1.34 1.54 2.14 2.45 2.19 2.07 2.02 1.97 1.89 1.95 1.92 1.69 1.53 1.56 1.64 1.64 1.69 1.80 1.87 1.77 1.78 1.73 1.78 1.90 2.10 2.06 1.98 1.93
2.62 3.26 3.28 3.04 2.68 2.37 1.98 1.80 1.71 1.56 1.24 0.88 0.82 0.98 1.27 1.79 1.69 1.55 1.54 1.35 1.21 1.16 1.27 1.70 2.14 1.95 1.85 1.85 1.85 1.77 1.86 1.95 1.80 1.55 1.65 1.75 1.75 1.83 1.95 1.95 1.84 1.85 1.85 1.93 2.14 2.16 2.17 2.09 1.98
3.09 3.02 3.11 3.06 2.88 2.53 2.10 1.58 1.44 1.46 1.17 0.94 0.93 1.09 1.72 2.18 1.99 1.84 1.56 1.57 1.37 1.20 1.15 1.32 1.73 1.80 1.68 1.71 1.86 1.77 1.77 1.87 1.81 1.68 1.69 1.65 1.73 1.91 2.03 2.01 1.87 1.81 1.87 2.09 2.44 2.40 2.27 2.08 2.03
2.98 2.86 2.86 2.51 2.63 2.89 2.24 1.39 1.43 1.44 1.31 1.10 0.87 1.10 1.62 1.93 1.78 1.69 1.53 1.54 1.57 1.49 1.35 1.22 1.25 1.41 1.53 1.65 1.79 1.75 1.71 1.72 1.65 1.71 1.74 1.80 1.88 1.91 1.89 1.90 1.86 1.85 1.90 1.99 2.27 2.26 2.17 2.09 2.09
2.39 2.48 2.43 2.42 2.63 2.83 2.04 1.25 1.12 1.29 1.25 0.87 0.92 1.23 1.47 1.43 1.37 1.38 1.45 1.63 1.62 1.56 1.43 1.21 1.10 1.11 1.25 1.28 1.50 1.73 1.79 1.73 1.61 1.67 1.78 1.88 1.90 1.87 1.86 1.78 1.92 2.01 1.98 2.11 2.33 2.25 2.11 2.09 2.01
1.99 2.48 2.75 2.80 2.70 2.41 1.62 1.30 1.06 0.94 0.93 0.86 0.86 0.97 1.04 0.95 1.05 1.20 1.20 1.27 1.38 1.30 1.23 1.15 1.10 1.14 1.25 1.27 1.33 1.65 1.73 1.65 1.47 1.44 1.65 1.68 1.55 1.62 1.85 1.95 2.24 2.20 2.20 2.30 2.43 2.40 2.17 1.92 1.87
2.05 2.50 2.56 2.06 1.66 1.61 1.38 1.23 1.11 1.16 1.20 1.02 0.97 0.98 1.01 0.99 1.03 1.07 1.06 1.07 1.09 1.03 0.93 0.91 0.93 1.01 1.13 1.18 1.54 1.82 1.63 1.56 1.33 1.34 1.32 1.41 1.47 1.69 1.68 1.92 2.31 2.23 2.20 2.19 2.35 2.38 2.00 1.53 1.30
1.72 2.11 1.79 1.53 1.25 1.07 1.12 1.11 0.89 1.08 1.30 1.08 1.01 0.95 1.01 1.09 1.05 1.04 1.02 0.91 0.87 0.80 0.73 0.68 0.64 0.66 0.75 0.99 1.34 1.65 1.80 1.80 1.79 1.59 1.40 1.43 1.22 1.16 1.17 1.27 1.45 1.52 1.60 1.57 1.71 1.87 1.58 1.32 1.25
1.63 1.61 1.43 1.41 1.04 1.00 1.00 0.95 0.90 0.95 1.07 0.96 1.00 0.89 0.90 1.00 1.00 0.96 0.96 0.91 0.79 0.77 0.73 0.65 0.60 0.55 0.59 0.67 0.86 1.11 1.30 1.42 1.49 1.40 1.22 1.29 1.19 1.09 1.09 1.11 1.11 1.12 1.23 1.37 1.39 1.53 1.50 1.30 1.20
1.69 1.66 1.35 1.10 0.98 0.93 0.86 0.83 0.85 0.95 0.90 0.81 0.90 0.97 1.01 0.99 0.97 1.01 1.07 1.04 0.89 0.88 0.88 0.78 0.66 0.60 0.61 0.67 0.73 0.82 1.01 1.14 1.17 1.23 1.16 1.13 1.19 1.21 1.15 1.04 1.04 0.97 1.07 1.23 1.35 1.39 1.40 1.42 1.35
1.50 1.48 1.50 1.30 1.09 0.99 0.98 0.85 0.75 0.94 0.93 0.89 0.97 1.06 1.02 1.04 0.93 0.92 0.97 1.04 1.03 0.99 0.94 0.90 0.78 0.75 0.72 0.70 0.72 0.80 0.90 0.96 0.97 0.96 0.96 1.05 1.17 1.17 1.17 1.13 1.17 1.11 1.14 1.27 1.30 1.24 1.32 1.44 1.36
1.36 1.62 1.64 1.46 1.18 1.06 1.08 1.19 0.90 0.88 0.97 1.00 1.09 1.03 0.94 0.97 0.92 0.89 0.88 0.94 0.98 0.95 0.88 0.89 0.88 0.89 0.87 0.83 0.77 0.78 0.89 0.96 0.95 0.92 0.84 0.87 0.98 1.03 1.09 1.13 1.12 1.15 1.26 1.33 1.40 1.22 1.27 1.28 1.23
1.71 2.08 2.23 1.61 1.33 1.12 1.29 1.50 1.02 0.98 1.05 1.01 0.99 0.93 0.88 0.88 0.85 0.84 0.87 0.84 0.83 0.78 0.77 0.85 0.86 0.88 0.91 0.92 0.92 0.94 0.95 1.04 0.98 0.97 0.87 0.82 0.89 0.98 1.13 1.16 1.11 1.11 1.28 1.41 1.49 1.42 1.43 1.41 1.35
1.97 2.05 1.94 1.60 1.27 1.14 1.20 1.21 0.95 0.97 1.05 0.92 0.89 0.85 0.78 0.75 0.74 0.70 0.74 0.78 0.76 0.71 0.71 0.73 0.79 0.78 0.84 0.91 0.95 1.06 1.09 1.11 1.07 1.06 0.95 0.91 0.98 1.08 1.26 1.37 1.35 1.31 1.35 1.38 1.38 1.49 1.55 1.53 1.52
1.64 1.52 1.41 1.36 1.12 1.05 1.06 0.91 0.77 0.82 0.88 0.82 0.73 0.66 0.63 0.63 0.61 0.60 0.62 0.67 0.68 0.69 0.67 0.66 0.72 0.74 0.76 0.88 0.99 1.18 1.30 1.28 1.29 1.20 1.11 1.12 1.27 1.41 1.55 1.55 1.63 1.67 1.59 1.59 1.56 1.61 1.60 1.53 1.61
1.07 1.17 1.20 1.12 0.85 0.86 0.87 0.73 0.68 0.71 0.74 0.73 0.65 0.55 0.53 0.56 0.54 0.51 0.54 0.60 0.61 0.63 0.65 0.63 0.61 0.70 0.74 0.79 0.93 1.16 1.44 1.55 1.65 1.57 1.36 1.29 1.42 1.70 1.94 1.90 1.99 2.05 1.97 1.94 1.93 2.17 2.12 1.82 1.64
1.04 1.24 1.21 1.09 0.77 0.72 0.73 0.63 0.55 0.55 0.62 0.58 0.56 0.55 0.48 0.50 0.44 0.40 0.43 0.47 0.49 0.51 0.56 0.58 0.57 0.65 0.71 0.76 0.93 1.11 1.27 1.27 1.44 1.57 1.53 1.44 1.42 1.57 1.75 2.05 2.19 2.16 2.28 2.38 2.36 2.72 2.85 2.35 1.90
1.03 1.05 1.02 1.00 0.82 0.70 0.66 0.70 0.53 0.47 0.50 0.47 0.45 0.47 0.43 0.44 0.43 0.41 0.39 0.41 0.42 0.42 0.40 0.43 0.48 0.55 0.66 0.81 1.02 1.26 1.48 1.55 1.58 1.50 1.58 1.58 1.49 1.54 1.67 1.84 1.99 2.03 2.17 2.36 2.47 2.79 3.34 3.09 2.41
0.96 0.70 0.64 0.71 0.91 0.97 0.78 0.96 0.66 0.53 0.55 0.48 0.42 0.40 0.38 0.40 0.42 0.47 0.43 0.44 0.41 0.38 0.35 0.38 0.47 0.60 0.81 1.00 1.23 1.49 1.70 1.75 1.61 1.60 1.64 1.53 1.44 1.43 1.55 1.68 1.80 1.92 1.98 2.15 2.23 2.38 2.97 3.37 3.03
0.65 0.55 0.53 0.60 0.79 0.79 0.60 0.73 0.65 0.52 0.61 0.55 0.48 0.43 0.39 0.38 0.41 0.43 0.41 0.44 0.45 0.44 0.45 0.49 0.67 0.89 1.15 1.36 1.63 1.92 1.90 1.78 1.67 1.63 1.62 1.56 1.54 1.50 1.52 1.68 1.74 1.76 1.84 1.98 2.30 2.58 2.89 3.13 3.15
0.46 0.54 0.60 0.67 0.86 0.86 0.53 0.61 0.67 0.51 0.52 0.53 0.51 0.46 0.39 0.35 0.41 0.50 0.56 0.65 0.70 0.73 0.88 1.06 1.30 1.46 1.54 1.67 1.83 1.95 1.90 1.89 1.83 1.65 1.56 1.56 1.60 1.65 1.67 1.72 1.75 1.72 1.76 1.89 2.13 2.45 2.69 3.01 3.25
0.47 0.80 1.16 1.20 1.17 0.84 0.43 0.62 0.68 0.47 0.39 0.40 0.43 0.38 0.32 0.36 0.46 0.62 0.80 0.93 1.06 1.20 1.36 1.50 1.65 1.79 1.73 1.69 1.76 1.81 1.78 1.75 1.73 1.67 1.60 1.53 1.53 1.58 1.60 1.68 1.81 1.88 1.93 2.05 2.22 2.39 2.34 2.54 2.97
0.50 0.74 1.20 1.34 1.12 0.78 0.57 0.83 0.77 0.54 0.40 0.31 0.26 0.25 0.36 0.51 0.64 0.77 0.86 0.98 1.15 1.33 1.41 1.43 1.52 1.63 1.61 1.57 1.56 1.55 1.59 1.59 1.53 1.45 1.42 1.46 1.54 1.52 1.46 1.49 1.60 1.72 1.92 1.97 2.04 2.10 2.06 2.17 2.43
0.49 0.54 0.59 0.85 0.72 0.72 0.75 0.89 0.79 0.52 0.43 0.35 0.30 0.33 0.49 0.71 0.92 1.08 1.20 1.32 1.35 1.40 1.49 1.42 1.43 1.49 1.50 1.46 1.41 1.43 1.42 1.47 1.46 1.37 1.38 1.36 1.35 1.27 1.19 1.18 1.26 1.34 1.42 1.51 1.67 1.78 1.88 1.95 2.08
0.39 0.53 0.69 1.01 1.15 1.13 1.02 1.01 0.90 0.67 0.57 0.57 0.64 0.73 0.77 0.88 1.15 1.46 1.74 1.90 1.72 1.46 1.40 1.40 1.34 1.35 1.45 1.46 1.40 1.39 1.45 1.45 1.42 1.41 1.35 1.32 1.32 1.22 1.14 1.09 1.06 1.05 1.00 1.04 1.23 1.44 1.56 1.67 1.84
0.40 0.57 0.72 0.94 1.06 1.35 1.54 1.45 1.09 1.06 1.04 1.07 1.15 1.19 1.20 1.30 1.29 1.46 1.69 1.89 1.80 1.47 1.25 1.30 1.37 1.38 1.40 1.40 1.42 1.41 1.39 1.28 1.27 1.29 1.26 1.22 1.20 1.23 1.20 1.12 1.07 1.15 1.12 1.06 1.13 1.18 1.24 1.33 1.49
0.51 0.64 0.83 1.19 1.12 1.10 1.39 1.45 1.13 1.10 1.11 1.18 1.33 1.40 1.38 1.29 1.20 1.20 1.27 1.36 1.43 1.29 1.09 1.07 1.23 1.33 1.33 1.32 1.36 1.34 1.24 1.15 1.14 1.13 1.04 0.92 0.86 0.85 0.96 1.08 1.02 1.00 1.02 1.04 1.10 1.11 1.13 1.19 1.31

GEFSSGP_prec_meanprecacc_306.txt.gz
Total_Precipitation_Accumulation
1.60 1.59 2.51 3.73 4.38 3.52 3.11 2.89 2.42 2.12 1.62 1.28 1.04 1.07 1.49 1.91 2.14 2.49 2.55 2.58 1.69 1.48 1.75 2.35 2.98 2.82 2.59 2.51 2.56 2.48 2.24 1.94 1.72 1.67 1.70 1.68 1.62 1.67 1.68 1.66 1.66 1.73 1.71 1.63 1.81 2.05 2.06 2.00 1.98
1.25 1.97 3.12 4.25 3.89 3.04 3.10 2.78 2.36 1.93 1.39 1.02 0.84 0.83 0.94 0.92 0.85 1.40 2.59 2.77 1.66 1.33 1.52 1.83 2.69 2.64 2.57 2.55 2.36 2.31 2.05 1.74 1.59 1.57 1.56 1.52 1.58 1.77 1.89 1.83 1.79 1.82 1.63 1.48 1.55 1.92 2.06 2.03 1.94
1.70 2.68 3.72 3.98 3.04 2.81 3.06 2.73 2.21 1.47 1.06 0.92 0.85 0.76 0.85 1.09 1.15 1.73 2.50 2.05 1.50 1.33 1.55 2.20 2.76 2.52 2.46 2.34 2.16 2.14 2.01 1.76 1.66 1.61 1.56 1.58 1.74 1.82 1.86 1.94 1.91 1.84 1.69 1.62 1.74 2.10 2.03 1.97 1.88
2.19 3.20 3.61 3.26 2.67 2.38 2.37 2.30 1.93 1.44 1.08 0.76 0.76 0.85 0.83 1.21 1.39 1.71 1.87 1.49 1.32 1.34 1.54 2.16 2.48 2.22 2.10 2.06 2.01 1.92 1.97 1.95 1.74 1.59 1.59 1.73 1.90 2.01 2.06 2.08 1.90 1.86 1.79 1.84 1.96 2.16 2.13 2.05 2.00
2.63 3.27 3.29 3.04 2.68 2.38 1.99 1.82 1.73 1.59 1.27 0.90 0.84 1.00 1.29 1.81 1.71 1.57 1.55 1.36 1.21 1.17 1.28 1.72 2.17 1.97 1.87 1.88 1.89 1.80 1.89 1.98 1.85 1.61 1.70 1.84 1.92 2.08 2.18 2.10 1.92 1.92 1.91 1.99 2.21 2.23 2.26 2.17 2.04
3.10 3.03 3.11 3.06 2.89 2.54 2.11 1.59 1.46 1.48 1.20 0.97 0.96 1.11 1.73 2.19 2.01 1.86 1.57 1.57 1.37 1.21 1.16 1.34 1.77 1.83 1.70 1.74 1.90 1.81 1.80 1.91 1.85 1.73 1.75 1.73 1.85 2.04 2.14 2.09 1.93 1.86 1.94 2.18 2.51 2.47 2.35 2.15 2.08
3.00 2.87 2.87 2.52 2.63 2.89 2.26 1.40 1.45 1.46 1.34 1.12 0.88 1.11 1.63 1.95 1.80 1.71 1.53 1.55 1.57 1.50 1.36 1.23 1.27 1.44 1.55 1.68 1.83 1.80 1.75 1.75 1.68 1.74 1.78 1.85 1.96 2.02 1.99 2.00 1.93 1.91 1.99 2.12 2.36 2.32 2.24 2.19 2.18
2.39 2.48 2.44 2.42 2.63 2.84 2.05 1.26 1.15 1.33 1.28 0.89 0.94 1.24 1.48 1.47 1.41 1.40 1.47 1.64 1.63 1.57 1.44 1.22 1.11 1.13 1.27 1.32 1.53 1.78 1.83 1.76 1.64 1.70 1.81 1.92 1.97 1.97 1.97 1.89 2.02 2.11 2.09 2.22 2.41 2.32 2.18 2.18 2.10
2.00 2.48 2.76 2.80 2.70 2.42 1.63 1.31 1.08 0.96 0.96 0.88 0.87 0.98 1.07 0.98 1.09 1.24 1.24 1.29 1.41 1.33 1.24 1.16 1.11 1.14 1.25 1.29 1.36 1.68 1.76 1.67 1.49 1.46 1.67 1.71 1.59 1.68 1.93 2.05 2.35 2.32 2.32 2.41 2.53 2.49 2.25 2.02 1.96
2.07 2.51 2.56 2.06 1.67 1.62 1.38 1.23 1.11 1.17 1.23 1.04 0.99 1.01 1.03 1.01 1.06 1.10 1.09 1.10 1.12 1.05 0.95 0.93 0.93 1.02 1.14 1.19 1.55 1.83 1.65 1.57 1.34 1.35 1.34 1.43 1.51 1.74 1.77 2.08 2.51 2.41 2.33 2.32 2.46 2.46 2.06 1.60 1.35
1.72 2.11 1.79 1.53 1.26 1.07 1.13 1.12 0.90 1.09 1.31 1.09 1.02 0.98 1.03 1.11 1.07 1.06 1.04 0.94 0.89 0.82 0.74 0.70 0.66 0.67 0.76 0.99 1.35 1.66 1.81 1.82 1.80 1.61 1.43 1.46 1.25 1.21 1.25 1.36 1.56 1.63 1.70 1.66 1.78 1.92 1.62 1.34 1.28
1.64 1.61 1.44 1.41 1.04 1.01 1.01 0.95 0.90 0.96 1.07 0.96 1.01 0.90 0.91 1.01 1.01 0.97 0.98 0.93 0.81 0.78 0.75 0.67 0.63 0.58 0.60 0.68 0.88 1.13 1.31 1.43 1.50 1.41 1.23 1.30 1.20 1.12 1.14 1.18 1.18 1.18 1.28 1.42 1.43 1.55 1.52 1.32 1.21
1.70 1.67 1.35 1.11 0.98 0.94 0.87 0.84 0.85 0.95 0.91 0.82 0.92 0.98 1.02 1.00 0.98 1.01 1.08 1.06 0.92 0.90 0.89 0.80 0.68 0.63 0.63 0.68 0.75 0.83 1.02 1.15 1.18 1.25 1.18 1.15 1.21 1.22 1.17 1.08 1.09 1.02 1.10 1.26 1.38 1.43 1.46 1.47 1.39
1.50 1.48 1.50 1.30 1.09 1.00 0.99 0.86 0.76 0.94 0.94 0.89 0.98 1.06 1.03 1.04 0.94 0.93 0.98 1.06 1.04 1.00 0.95 0.92 0.80 0.76 0.73 0.72 0.73 0.81 0.91 0.97 0.99 0.98 0.98 1.07 1.18 1.18 1.19 1.16 1.20 1.14 1.17 1.30 1.33 1.28 1.40 1.59 1.51
1.36 1.62 1.64 1.46 1.18 1.06 1.08 1.20 0.91 0.88 0.97 1.01 1.10 1.04 0.95 0.98 0.92 0.90 0.89 0.95 1.00 0.96 0.89 0.89 0.89 0.90 0.88 0.84 0.78 0.80 0.90 0.98 0.97 0.93 0.85 0.88 1.00 1.06 1.13 1.16 1.14 1.17 1.31 1.37 1.43 1.25 1.32 1.38 1.37
1.72 2.09 2.24 1.62 1.33 1.13 1.30 1.51 1.04 0.99 1.06 1.02 1.03 0.97 0.90 0.89 0.85 0.84 0.87 0.85 0.84 0.79 0.77 0.85 0.86 0.88 0.92 0.93 0.93 0.95 0.97 1.05 1.00 0.98 0.89 0.85 0.91 1.01 1.16 1.17 1.12 1.13 1.31 1.46 1.54 1.45 1.46 1.45 1.41
1.98 2.06 1.95 1.62 1.28 1.16 1.20 1.21 0.97 0.98 1.06 0.92 0.90 0.86 0.79 0.75 0.74 0.70 0.74 0.78 0.77 0.72 0.72 0.73 0.79 0.78 0.85 0.91 0.96 1.07 1.10 1.13 1.09 1.07 0.98 0.94 1.01 1.10 1.28 1.39 1.37 1.33 1.37 1.41 1.42 1.53 1.58 1.57 1.57
1.64 1.53 1.42 1.37 1.12 1.06 1.08 0.92 0.80 0.84 0.89 0.83 0.73 0.66 0.63 0.63 0.61 0.60 0.63 0.67 0.69 0.70 0.68 0.66 0.72 0.74 0.76 0.88 1.00 1.19 1.31 1.30 1.31 1.21 1.13 1.15 1.30 1.44 1.58 1.58 1.65 1.68 1.60 1.61 1.58 1.64 1.63 1.56 1.64
1.07 1.18 1.21 1.13 0.85 0.87 0.88 0.75 0.72 0.73 0.76 0.75 0.66 0.56 0.53 0.56 0.54 0.52 0.55 0.60 0.62 0.64 0.65 0.64 0.62 0.70 0.74 0.79 0.93 1.16 1.45 1.57 1.66 1.57 1.37 1.31 1.44 1.72 1.98 1.94 2.00 2.06 1.99 1.95 1.95 2.19 2.13 1.85 1.66
1.05 1.24 1.21 1.10 0.77 0.72 0.74 0.65 0.57 0.57 0.64 0.60 0.58 0.56 0.49 0.50 0.44 0.40 0.44 0.48 0.51 0.52 0.58 0.60 0.58 0.65 0.71 0.76 0.94 1.12 1.28 1.29 1.45 1.57 1.53 1.45 1.43 1.59 1.77 2.07 2.20 2.16 2.28 2.39 2.37 2.74 2.88 2.38 1.93
1.03 1.06 1.03 1.01 0.82 0.71 0.67 0.71 0.54 0.48 0.51 0.48 0.46 0.48 0.43 0.44 0.43 0.41 0.40 0.42 0.42 0.43 0.42 0.46 0.49 0.56 0.67 0.81 1.03 1.27 1.50 1.57 1.59 1.50 1.58 1.59 1.49 1.55 1.69 1.85 2.00 2.04 2.19 2.37 2.49 2.82 3.36 3.11 2.43
0.96 0.70 0.65 0.72 0.92 0.98 0.78 0.97 0.66 0.53 0.56 0.49 0.43 0.40 0.38 0.40 0.43 0.48 0.44 0.44 0.41 0.39 0.38 0.41 0.50 0.63 0.82 1.02 1.24 1.49 1.70 1.76 1.62 1.61 1.64 1.53 1.44 1.43 1.56 1.69 1.81 1.94 2.00 2.17 2.27 2.41 3.00 3.40 3.05
0.65 0.55 0.53 0.61 0.81 0.80 0.61 0.73 0.65 0.52 0.62 0.56 0.48 0.43 0.39 0.39 0.42 0.45 0.43 0.45 0.46 0.46 0.48 0.53 0.71 0.93 1.18 1.38 1.64 1.93 1.90 1.79 1.69 1.64 1.63 1.57 1.54 1.51 1.52 1.69 1.75 1.77 1.86 2.00 2.33 2.60 2.91 3.15 3.17
0.47 0.55 0.62 0.70 0.88 0.86 0.53 0.62 0.68 0.52 0.52 0.54 0.51 0.46 0.39 0.35 0.42 0.52 0.58 0.66 0.71 0.74 0.90 1.09 1.34 1.49 1.58 1.70 1.85 1.96 1.90 1.89 1.84 1.66 1.57 1.56 1.61 1.66 1.67 1.72 1.75 1.72 1.77 1.90 2.16 2.47 2.70 3.03 3.26
0.48 0.82 1.18 1.21 1.18 0.84 0.44 0.63 0.69 0.49 0.40 0.40 0.43 0.38 0.32 0.36 0.47 0.63 0.81 0.94 1.07 1.21 1.38 1.52 1.68 1.81 1.76 1.72 1.79 1.82 1.79 1.76 1.75 1.68 1.61 1.55 1.54 1.59 1.62 1.69 1.82 1.89 1.93 2.05 2.24 2.42 2.37 2.56 2.99
0.52 0.75 1.22 1.36 1.13 0.78 0.58 0.84 0.78 0.54 0.41 0.32 0.26 0.26 0.36 0.51 0.65 0.77 0.86 0.99 1.16 1.33 1.41 1.44 1.52 1.64 1.63 1.59 1.58 1.57 1.60 1.60 1.55 1.47 1.44 1.48 1.56 1.54 1.48 1.51 1.62 1.74 1.92 1.98 2.05 2.11 2.09 2.19 2.45
0.51 0.56 0.61 0.87 0.73 0.73 0.76 0.89 0.79 0.52 0.43 0.35 0.30 0.34 0.49 0.71 0.92 1.08 1.20 1.32 1.36 1.41 1.50 1.43 1.44 1.50 1.51 1.46 1.42 1.44 1.44 1.48 1.48 1.40 1.40 1.38 1.37 1.29 1.20 1.21 1.28 1.35 1.43 1.52 1.68 1.79 1.89 1.96 2.10
0.40 0.55 0.72 1.04 1.17 1.15 1.03 1.02 0.91 0.67 0.58 0.58 0.64 0.73 0.77 0.88 1.16 1.46 1.74 1.91 1.73 1.46 1.41 1.41 1.35 1.37 1.46 1.47 1.41 1.39 1.47 1.47 1.44 1.44 1.38 1.35 1.35 1.25 1.15 1.10 1.08 1.06 1.02 1.06 1.25 1.45 1.58 1.68 1.85
0.41 0.58 0.75 0.97 1.08 1.37 1.55 1.46 1.09 1.07 1.05 1.08 1.16 1.20 1.21 1.30 1.29 1.46 1.70 1.89 1.80 1.48 1.26 1.31 1.38 1.40 1.42 1.41 1.43 1.42 1.40 1.31 1.29 1.31 1.28 1.25 1.24 1.27 1.23 1.13 1.07 1.15 1.14 1.08 1.14 1.19 1.26 1.34 1.50
0.51 0.65 0.85 1.22 1.15 1.12 1.40 1.46 1.14 1.11 1.12 1.18 1.34 1.40 1.39 1.30 1.20 1.20 1.28 1.36 1.43 1.29 1.10 1.08 1.24 1.35 1.35 1.34 1.37 1.35 1.25 1.17 1.17 1.16 1.07 0.95 0.90 0.90 1.00 1.10 1.03 1.01 1.04 1.06 1.12 1.11 1.14 1.20 1.33

GEFSSGP_prec_meanprecacc_312.txt.gz
Total_Precipitation_Accumulation
1.61 1.60 2.52 3.73 4.39 3.53 3.12 2.91 2.46 2.14 1.64 1.30 1.05 1.07 1.51 1.92 2.16 2.50 2.56 2.59 1.70 1.49 1.76 2.36 3.02 2.87 2.64 2.57 2.62 2.54 2.32 2.03 1.82 1.76 1.78 1.79 1.76 1.79 1.80 1.79 1.77 1.83 1.80 1.71 1.88 2.12 2.15 2.11 2.07
1.25 1.98 3.13 4.26 3.90 3.05 3.11 2.80 2.40 1.97 1.43 1.05 0.85 0.84 0.95 0.93 0.86 1.41 2.61 2.78 1.67 1.34 1.52 1.84 2.72 2.69 2.62 2.60 2.41 2.36 2.10 1.81 1.67 1.64 1.64 1.62 1.69 1.90 2.03 1.97 1.92 1.94 1.74 1.57 1.62 2.01 2.17 2.14 2.02
1.71 2.69 3.73 3.99 3.05 2.82 3.09 2.76 2.24 1.49 1.08 0.94 0.87 0.77 0.85 1.10 1.16 1.75 2.52 2.06 1.51 1.34 1.56 2.22 2.79 2.57 2.51 2.39 2.21 2.20 2.06 1.83 1.72 1.67 1.64 1.68 1.91 2.06 2.05 2.07 2.02 1.96 1.79 1.71 1.82 2.19 2.11 2.05 1.96
2.19 3.21 3.61 3.27 2.68 2.39 2.39 2.32 1.95 1.46 1.10 0.78 0.78 0.88 0.85 1.22 1.41 1.73 1.88 1.50 1.33 1.35 1.55 2.19 2.53 2.27 2.17 2.13 2.07 1.98 2.03 2.03 1.82 1.65 1.69 1.87 2.21 2.23 2.21 2.22 1.98 1.96 1.88 1.92 2.05 2.24 2.22 2.14 2.09
2.63 3.28 3.30 3.05 2.69 2.40 2.00 1.83 1.75 1.62 1.28 0.91 0.86 1.04 1.31 1.82 1.71 1.58 1.56 1.36 1.22 1.17 1.29 1.74 2.21 2.03 1.93 1.94 1.93 1.84 1.94 2.04 1.92 1.68 1.80 2.01 2.24 2.31 2.32 2.20 2.00 1.99 1.99 2.08 2.30 2.32 2.36 2.27 2.12
3.10 3.03 3.13 3.07 2.89 2.56 2.13 1.60 1.47 1.50 1.21 0.99 0.97 1.12 1.75 2.21 2.03 1.87 1.57 1.57 1.37 1.21 1.17 1.35 1.81 1.89 1.75 1.78 1.94 1.85 1.85 1.95 1.90 1.80 1.84 1.88 2.08 2.24 2.27 2.17 2.00 1.93 2.03 2.28 2.61 2.56 2.44 2.25 2.16
3.01 2.88 2.88 2.53 2.64 2.90 2.27 1.41 1.46 1.47 1.35 1.14 0.89 1.12 1.65 1.98 1.83 1.74 1.55 1.55 1.58 1.50 1.37 1.24 1.30 1.48 1.59 1.71 1.87 1.85 1.80 1.78 1.71 1.80 1.86 1.95 2.09 2.14 2.09 2.09 2.02 1.99 2.08 2.21 2.45 2.40 2.30 2.26 2.24
2.40 2.49 2.45 2.44 2.64 2.84 2.05 1.26 1.15 1.34 1.30 0.90 0.95 1.25 1.50 1.49 1.43 1.43 1.49 1.65 1.64 1.58 1.45 1.23 1.12 1.15 1.32 1.37 1.57 1.82 1.86 1.79 1.67 1.74 1.87 1.98 2.06 2.07 2.06 1.99 2.13 2.21 2.18 2.31 2.49 2.39 2.24 2.25 2.16
2.00 2.49 2.78 2.81 2.71 2.42 1.63 1.31 1.09 0.97 0.98 0.89 0.89 1.00 1.09 0.99 1.10 1.26 1.27 1.32 1.44 1.36 1.26 1.17 1.11 1.15 1.27 1.32 1.39 1.71 1.78 1.68 1.51 1.48 1.72 1.77 1.66 1.78 2.03 2.15 2.46 2.43 2.42 2.50 2.61 2.57 2.34 2.09 2.01
2.07 2.52 2.57 2.07 1.67 1.62 1.38 1.23 1.12 1.18 1.24 1.05 1.00 1.02 1.04 1.02 1.07 1.11 1.10 1.11 1.14 1.08 0.97 0.94 0.94 1.02 1.14 1.19 1.56 1.84 1.65 1.58 1.35 1.37 1.38 1.50 1.58 1.82 1.86 2.19 2.63 2.53 2.44 2.40 2.54 2.54 2.14 1.66 1.38
1.73 2.12 1.80 1.53 1.26 1.07 1.13 1.12 0.90 1.09 1.32 1.10 1.03 0.99 1.04 1.12 1.08 1.07 1.04 0.94 0.90 0.83 0.76 0.72 0.67 0.67 0.76 1.00 1.35 1.67 1.82 1.83 1.82 1.62 1.45 1.51 1.32 1.28 1.32 1.47 1.69 1.78 1.83 1.76 1.86 1.97 1.66 1.38 1.31
1.64 1.61 1.44 1.42 1.04 1.01 1.01 0.95 0.91 0.96 1.07 0.97 1.02 0.91 0.91 1.01 1.01 0.97 0.98 0.94 0.82 0.79 0.75 0.67 0.63 0.59 0.61 0.69 0.88 1.13 1.32 1.44 1.51 1.42 1.24 1.32 1.25 1.19 1.21 1.26 1.26 1.27 1.37 1.49 1.49 1.60 1.55 1.35 1.25
1.70 1.67 1.35 1.11 0.99 0.94 0.87 0.84 0.85 0.95 0.91 0.82 0.92 0.99 1.02 1.00 1.00 1.03 1.09 1.07 0.92 0.90 0.90 0.80 0.68 0.63 0.63 0.69 0.75 0.83 1.03 1.16 1.19 1.25 1.18 1.16 1.23 1.26 1.24 1.16 1.17 1.08 1.16 1.31 1.43 1.46 1.48 1.50 1.43
1.50 1.49 1.50 1.30 1.09 1.00 0.99 0.87 0.76 0.95 0.94 0.90 0.98 1.07 1.03 1.05 0.96 0.93 0.98 1.06 1.05 1.00 0.96 0.92 0.80 0.77 0.73 0.72 0.74 0.82 0.92 0.97 0.99 0.98 0.98 1.07 1.19 1.21 1.23 1.22 1.26 1.19 1.22 1.35 1.37 1.30 1.43 1.62 1.54
1.37 1.63 1.65 1.47 1.19 1.06 1.09 1.22 0.93 0.89 0.98 1.01 1.10 1.05 0.96 0.99 0.93 0.90 0.89 0.95 1.00 0.97 0.90 0.90 0.90 0.91 0.89 0.85 0.79 0.80 0.91 0.99 0.98 0.94 0.86 0.88 1.00 1.07 1.15 1.19 1.17 1.20 1.33 1.40 1.46 1.28 1.35 1.42 1.41
1.73 2.11 2.26 1.64 1.34 1.14 1.31 1.52 1.05 1.00 1.06 1.03 1.04 0.98 0.91 0.89 0.86 0.84 0.87 0.85 0.84 0.79 0.78 0.86 0.87 0.89 0.92 0.93 0.94 0.96 0.98 1.07 1.01 0.99 0.90 0.86 0.92 1.03 1.17 1.20 1.15 1.15 1.34 1.49 1.57 1.48 1.50 1.48 1.47
1.99 2.08 1.97 1.62 1.29 1.17 1.22 1.23 0.98 0.99 1.06 0.93 0.91 0.86 0.80 0.75 0.74 0.70 0.74 0.78 0.77 0.72 0.72 0.74 0.80 0.79 0.85 0.91 0.96 1.08 1.12 1.14 1.10 1.08 0.99 0.96 1.03 1.14 1.30 1.40 1.38 1.34 1.39 1.45 1.46 1.56 1.60 1.59 1.60
1.65 1.54 1.43 1.37 1.13 1.08 1.09 0.93 0.81 0.85 0.90 0.83 0.73 0.66 0.64 0.64 0.61 0.60 0.63 0.67 0.69 0.70 0.68 0.67 0.72 0.75 0.77 0.88 1.00 1.20 1.33 1.31 1.31 1.21 1.14 1.17 1.31 1.47 1.60 1.60 1.67 1.69 1.61 1.63 1.61 1.69 1.68 1.61 1.67
1.07 1.18 1.21 1.13 0.86 0.88 0.89 0.76 0.72 0.73 0.76 0.75 0.66 0.56 0.53 0.56 0.54 0.52 0.55 0.60 0.62 0.65 0.66 0.66 0.64 0.71 0.74 0.79 0.94 1.18 1.46 1.57 1.66 1.57 1.38 1.32 1.45 1.74 1.99 1.94 2.01 2.07 2.00 1.97 1.96 2.22 2.18 1.92 1.74
1.05 1.25 1.21 1.10 0.78 0.73 0.75 0.66 0.58 0.57 0.64 0.60 0.58 0.56 0.49 0.50 0.44 0.40 0.44 0.48 0.51 0.53 0.59 0.63 0.62 0.68 0.71 0.76 0.94 1.12 1.29 1.30 1.45 1.57 1.54 1.45 1.44 1.61 1.79 2.07 2.21 2.17 2.30 2.41 2.38 2.75 2.90 2.41 1.98
1.03 1.06 1.03 1.01 0.83 0.71 0.68 0.72 0.56 0.49 0.52 0.49 0.46 0.48 0.43 0.44 0.43 0.41 0.40 0.43 0.43 0.43 0.43 0.47 0.52 0.59 0.69 0.82 1.04 1.27 1.51 1.58 1.60 1.50 1.58 1.59 1.50 1.56 1.70 1.86 2.01 2.05 2.20 2.39 2.51 2.83 3.38 3.14 2.46
0.96 0.70 0.65 0.72 0.92 0.99 0.80 0.99 0.67 0.54 0.56 0.49 0.43 0.40 0.38 0.40 0.43 0.48 0.44 0.46 0.42 0.40 0.39 0.43 0.52 0.65 0.86 1.04 1.25 1.50 1.71 1.77 1.64 1.62 1.64 1.53 1.44 1.43 1.56 1.69 1.81 1.94 2.01 2.19 2.28 2.42 3.01 3.42 3.08
0.65 0.55 0.53 0.62 0.82 0.81 0.62 0.75 0.66 0.53 0.63 0.56 0.48 0.44 0.39 0.39 0.42 0.45 0.44 0.46 0.47 0.46 0.49 0.54 0.72 0.94 1.20 1.41 1.66 1.95 1.92 1.80 1.70 1.65 1.63 1.57 1.55 1.51 1.52 1.69 1.75 1.77 1.86 2.01 2.35 2.62 2.92 3.17 3.20
0.47 0.55 0.62 0.70 0.89 0.87 0.54 0.63 0.69 0.52 0.53 0.54 0.52 0.47 0.40 0.36 0.42 0.52 0.58 0.66 0.71 0.75 0.90 1.09 1.34 1.49 1.59 1.72 1.86 1.98 1.92 1.92 1.86 1.67 1.58 1.56 1.61 1.66 1.68 1.73 1.75 1.72 1.77 1.90 2.17 2.48 2.71 3.04 3.28
0.49 0.82 1.19 1.22 1.19 0.85 0.44 0.63 0.70 0.49 0.40 0.40 0.43 0.38 0.33 0.37 0.47 0.63 0.81 0.94 1.07 1.22 1.38 1.53 1.68 1.82 1.76 1.73 1.79 1.83 1.80 1.77 1.76 1.70 1.63 1.55 1.55 1.60 1.63 1.70 1.82 1.89 1.94 2.06 2.24 2.42 2.37 2.57 3.00
0.52 0.76 1.23 1.37 1.13 0.79 0.58 0.84 0.78 0.55 0.41 0.32 0.26 0.26 0.36 0.52 0.65 0.78 0.87 0.99 1.16 1.34 1.42 1.44 1.53 1.65 1.64 1.60 1.59 1.57 1.61 1.60 1.55 1.48 1.45 1.49 1.57 1.56 1.49 1.53 1.63 1.75 1.93 1.99 2.06 2.12 2.09 2.20 2.46
0.52 0.57 0.62 0.88 0.74 0.74 0.76 0.89 0.79 0.52 0.44 0.35 0.30 0.34 0.49 0.72 0.93 1.09 1.21 1.32 1.36 1.41 1.50 1.43 1.45 1.51 1.52 1.47 1.43 1.45 1.44 1.49 1.48 1.41 1.41 1.39 1.38 1.30 1.22 1.22 1.29 1.36 1.44 1.54 1.69 1.79 1.90 1.98 2.11
0.41 0.55 0.73 1.06 1.19 1.16 1.04 1.02 0.91 0.68 0.58 0.58 0.64 0.73 0.78 0.89 1.16 1.46 1.74 1.91 1.73 1.47 1.41 1.41 1.36 1.37 1.47 1.48 1.42 1.40 1.47 1.48 1.45 1.45 1.38 1.35 1.36 1.27 1.17 1.12 1.09 1.07 1.03 1.08 1.26 1.46 1.59 1.69 1.85
0.42 0.59 0.76 0.99 1.10 1.38 1.56 1.47 1.10 1.08 1.05 1.08 1.16 1.20 1.21 1.31 1.29 1.46 1.70 1.89 1.80 1.48 1.26 1.31 1.38 1.40 1.42 1.42 1.43 1.43 1.41 1.32 1.30 1.32 1.29 1.26 1.25 1.29 1.25 1.15 1.09 1.16 1.14 1.10 1.16 1.20 1.26 1.35 1.50
0.52 0.66 0.86 1.24 1.16 1.13 1.42 1.48 1.15 1.11 1.12 1.18 1.34 1.40 1.39 1.30 1.20 1.20 1.28 1.37 1.43 1.30 1.10 1.08 1.24 1.35 1.35 1.35 1.39 1.36 1.26 1.18 1.17 1.16 1.08 0.96 0.90 0.91 1.01 1.12 1.06 1.03 1.05 1.07 1.13 1.12 1.15 1.21 1.33

GEFSSGP_prec_meanprecacc_318.txt.gz
Total_Precipitation_Accumulation
1.62 1.61 2.54 3.76 4.45 3.59 3.16 2.95 2.49 2.16 1.65 1.30 1.05 1.08 1.52 1.94 2.19 2.55 2.59 2.61 1.71 1.50 1.78 2.37 3.03 2.91 2.69 2.63 2.69 2.62 2.41 2.11 1.93 1.89 1.93 1.96 1.91 1.92 1.93 1.93 1.90 1.96 1.92 1.82 1.98 2.24 2.26 2.19 2.16
1.26 2.00 3.15 4.31 3.96 3.10 3.16 2.84 2.43 1.99 1.44 1.06 0.86 0.85 0.96 0.94 0.87 1.42 2.63 2.79 1.68 1.35 1.54 1.84 2.74 2.72 2.67 2.65 2.46 2.41 2.17 1.89 1.76 1.73 1.73 1.75 1.88 2.10 2.20 2.13 2.06 2.07 1.87 1.70 1.74 2.12 2.27 2.22 2.08
1.72 2.70 3.77 4.05 3.10 2.87 3.15 2.81 2.26 1.49 1.08 0.95 0.89 0.79 0.88 1.13 1.17 1.76 2.53 2.07 1.53 1.36 1.58 2.24 2.82 2.60 2.54 2.44 2.26 2.25 2.12 1.89 1.77 1.74 1.71 1.75 2.01 2.19 2.18 2.20 2.16 2.09 1.91 1.82 1.92 2.28 2.19 2.14 2.03
2.21 3.23 3.65 3.31 2.71 2.41 2.43 2.35 1.96 1.47 1.10 0.78 0.79 0.90 0.87 1.24 1.43 1.74 1.89 1.51 1.36 1.38 1.57 2.21 2.56 2.31 2.21 2.17 2.12 2.02 2.06 2.08 1.86 1.70 1.74 1.93 2.28 2.32 2.32 2.34 2.11 2.08 1.99 2.02 2.14 2.32 2.30 2.21 2.15
2.64 3.32 3.35 3.09 2.72 2.42 2.02 1.84 1.76 1.64 1.29 0.92 0.87 1.06 1.34 1.84 1.73 1.59 1.56 1.37 1.23 1.20 1.31 1.75 2.23 2.07 1.98 1.98 1.97 1.87 1.96 2.09 1.97 1.74 1.85 2.10 2.41 2.44 2.40 2.28 2.08 2.08 2.08 2.16 2.38 2.41 2.43 2.33 2.17
3.13 3.06 3.18 3.12 2.92 2.58 2.15 1.60 1.47 1.50 1.21 0.99 0.97 1.14 1.77 2.23 2.04 1.88 1.58 1.58 1.38 1.23 1.18 1.36 1.83 1.93 1.80 1.83 1.98 1.89 1.88 1.99 1.94 1.86 1.89 2.03 2.37 2.35 2.34 2.24 2.08 2.01 2.10 2.37 2.70 2.63 2.51 2.31 2.21
3.03 2.92 2.93 2.57 2.66 2.91 2.28 1.41 1.46 1.47 1.36 1.14 0.89 1.15 1.67 2.01 1.85 1.75 1.55 1.55 1.58 1.51 1.38 1.26 1.32 1.50 1.63 1.76 1.91 1.90 1.85 1.83 1.77 1.87 1.91 2.12 2.45 2.31 2.16 2.15 2.09 2.06 2.16 2.30 2.53 2.45 2.34 2.30 2.29
2.42 2.53 2.49 2.47 2.67 2.86 2.06 1.26 1.15 1.35 1.31 0.91 0.95 1.28 1.53 1.51 1.44 1.45 1.50 1.66 1.65 1.59 1.46 1.25 1.15 1.19 1.36 1.41 1.60 1.84 1.90 1.82 1.71 1.79 1.93 2.10 2.32 2.28 2.15 2.06 2.20 2.29 2.27 2.39 2.55 2.42 2.26 2.27 2.19
2.03 2.54 2.82 2.85 2.73 2.43 1.63 1.31 1.09 0.97 0.98 0.90 0.90 1.01 1.10 1.00 1.10 1.26 1.28 1.33 1.45 1.37 1.27 1.17 1.12 1.17 1.29 1.35 1.40 1.73 1.81 1.71 1.55 1.55 1.81 1.85 1.81 1.90 2.12 2.22 2.53 2.51 2.50 2.57 2.65 2.61 2.37 2.12 2.04
2.10 2.55 2.59 2.08 1.67 1.62 1.38 1.23 1.12 1.18 1.25 1.06 1.01 1.03 1.05 1.03 1.09 1.11 1.11 1.13 1.15 1.09 0.98 0.94 0.94 1.03 1.15 1.21 1.59 1.88 1.68 1.61 1.39 1.43 1.47 1.58 1.68 1.93 1.95 2.25 2.68 2.59 2.51 2.46 2.59 2.58 2.18 1.69 1.41
1.73 2.14 1.80 1.53 1.26 1.07 1.13 1.12 0.90 1.10 1.33 1.11 1.06 1.03 1.05 1.14 1.10 1.08 1.06 0.97 0.92 0.83 0.76 0.73 0.67 0.68 0.76 1.01 1.37 1.70 1.85 1.86 1.84 1.67 1.52 1.61 1.39 1.36 1.39 1.52 1.74 1.82 1.87 1.80 1.90 2.00 1.70 1.43 1.34
1.64 1.61 1.44 1.42 1.05 1.01 1.01 0.95 0.91 0.97 1.09 0.97 1.03 0.93 0.93 1.02 1.01 0.98 1.00 0.96 0.84 0.80 0.75 0.67 0.63 0.59 0.61 0.70 0.90 1.15 1.33 1.46 1.54 1.45 1.28 1.40 1.33 1.26 1.28 1.32 1.31 1.31 1.40 1.52 1.51 1.63 1.58 1.38 1.28
1.70 1.67 1.35 1.11 0.99 0.94 0.87 0.85 0.86 0.96 0.92 0.82 0.93 0.99 1.02 1.00 1.00 1.03 1.09 1.07 0.94 0.92 0.90 0.80 0.69 0.64 0.64 0.69 0.76 0.85 1.04 1.17 1.20 1.28 1.21 1.20 1.31 1.35 1.30 1.22 1.22 1.14 1.21 1.35 1.46 1.48 1.51 1.53 1.45
1.51 1.49 1.50 1.31 1.09 1.00 0.99 0.87 0.77 0.95 0.94 0.90 1.00 1.08 1.04 1.06 0.96 0.94 0.99 1.07 1.06 1.01 0.96 0.92 0.81 0.77 0.74 0.73 0.74 0.83 0.92 0.98 1.00 1.00 1.00 1.10 1.24 1.28 1.31 1.29 1.32 1.27 1.27 1.38 1.40 1.33 1.46 1.64 1.57
1.37 1.63 1.65 1.47 1.19 1.06 1.09 1.22 0.93 0.89 0.98 1.02 1.13 1.07 0.98 0.99 0.93 0.90 0.89 0.95 1.00 0.97 0.90 0.90 0.90 0.92 0.90 0.86 0.79 0.81 0.91 0.99 0.99 0.95 0.87 0.90 1.02 1.11 1.21 1.24 1.23 1.26 1.40 1.45 1.50 1.32 1.38 1.44 1.44
1.73 2.12 2.27 1.64 1.34 1.14 1.31 1.54 1.06 1.00 1.07 1.03 1.05 1.01 0.94 0.90 0.86 0.84 0.87 0.85 0.84 0.79 0.78 0.86 0.87 0.90 0.93 0.94 0.94 0.96 0.98 1.07 1.02 1.01 0.92 0.87 0.93 1.04 1.20 1.22 1.18 1.20 1.39 1.54 1.62 1.53 1.54 1.52 1.49
2.00 2.11 1.99 1.63 1.29 1.18 1.24 1.26 0.99 0.99 1.06 0.93 0.91 0.88 0.82 0.77 0.74 0.71 0.75 0.78 0.77 0.72 0.72 0.74 0.80 0.79 0.86 0.92 0.96 1.08 1.13 1.15 1.11 1.09 1.00 0.97 1.04 1.15 1.32 1.41 1.40 1.37 1.43 1.49 1.49 1.60 1.64 1.63 1.64
1.67 1.56 1.44 1.39 1.14 1.08 1.10 0.94 0.82 0.85 0.90 0.83 0.74 0.67 0.65 0.66 0.62 0.60 0.63 0.67 0.70 0.71 0.68 0.68 0.74 0.76 0.78 0.90 1.01 1.20 1.34 1.32 1.32 1.22 1.15 1.18 1.33 1.49 1.62 1.61 1.68 1.70 1.64 1.66 1.64 1.72 1.70 1.64 1.71
1.07 1.19 1.22 1.14 0.86 0.89 0.90 0.77 0.73 0.74 0.77 0.75 0.67 0.56 0.54 0.57 0.54 0.52 0.55 0.61 0.62 0.65 0.67 0.68 0.66 0.72 0.76 0.80 0.95 1.19 1.47 1.58 1.67 1.58 1.38 1.33 1.47 1.76 2.02 1.95 2.01 2.07 2.01 1.99 1.98 2.23 2.20 1.94 1.77
1.05 1.25 1.23 1.10 0.78 0.74 0.76 0.67 0.59 0.58 0.65 0.60 0.58 0.56 0.49 0.50 0.44 0.40 0.44 0.48 0.51 0.53 0.60 0.65 0.64 0.69 0.72 0.77 0.95 1.13 1.30 1.30 1.46 1.58 1.54 1.46 1.45 1.63 1.80 2.08 2.22 2.18 2.32 2.42 2.39 2.76 2.92 2.43 2.00
1.03 1.06 1.04 1.01 0.83 0.72 0.70 0.75 0.57 0.50 0.53 0.49 0.46 0.48 0.43 0.45 0.44 0.42 0.41 0.43 0.43 0.43 0.44 0.48 0.52 0.60 0.70 0.83 1.04 1.28 1.52 1.60 1.62 1.52 1.58 1.59 1.50 1.57 1.72 1.87 2.02 2.06 2.21 2.40 2.52 2.84 3.40 3.16 2.49
0.97 0.71 0.65 0.72 0.93 1.00 0.81 1.02 0.70 0.56 0.58 0.49 0.43 0.40 0.38 0.41 0.44 0.49 0.45 0.46 0.42 0.41 0.41 0.44 0.53 0.66 0.86 1.05 1.26 1.51 1.72 1.78 1.65 1.63 1.65 1.54 1.45 1.44 1.57 1.71 1.82 1.95 2.01 2.19 2.29 2.43 3.02 3.44 3.10
0.65 0.55 0.53 0.62 0.83 0.83 0.63 0.77 0.68 0.56 0.66 0.57 0.49 0.44 0.40 0.39 0.42 0.45 0.45 0.47 0.48 0.48 0.52 0.55 0.73 0.95 1.21 1.41 1.67 1.96 1.94 1.83 1.73 1.67 1.64 1.58 1.55 1.52 1.53 1.70 1.76 1.77 1.86 2.01 2.35 2.62 2.93 3.19 3.22
0.47 0.55 0.62 0.70 0.90 0.90 0.55 0.64 0.70 0.54 0.54 0.56 0.53 0.47 0.40 0.36 0.43 0.52 0.59 0.68 0.73 0.76 0.91 1.10 1.35 1.50 1.59 1.72 1.87 1.99 1.94 1.94 1.89 1.71 1.60 1.58 1.62 1.67 1.68 1.73 1.76 1.74 1.79 1.91 2.18 2.50 2.72 3.05 3.29
0.49 0.83 1.21 1.24 1.21 0.86 0.44 0.64 0.70 0.50 0.41 0.43 0.46 0.40 0.35 0.38 0.48 0.63 0.82 0.96 1.08 1.22 1.38 1.53 1.68 1.82 1.76 1.73 1.80 1.83 1.81 1.78 1.77 1.71 1.64 1.57 1.56 1.61 1.63 1.70 1.83 1.90 1.95 2.08 2.26 2.44 2.39 2.58 3.01
0.52 0.77 1.26 1.39 1.15 0.80 0.58 0.84 0.78 0.55 0.42 0.34 0.28 0.26 0.37 0.53 0.66 0.79 0.87 1.00 1.18 1.34 1.42 1.44 1.54 1.66 1.65 1.61 1.60 1.58 1.61 1.61 1.57 1.49 1.46 1.50 1.58 1.56 1.49 1.53 1.64 1.75 1.94 2.00 2.08 2.15 2.11 2.22 2.46
0.52 0.57 0.62 0.90 0.76 0.75 0.77 0.90 0.80 0.53 0.45 0.37 0.32 0.35 0.50 0.72 0.93 1.09 1.21 1.33 1.38 1.43 1.50 1.43 1.45 1.51 1.52 1.48 1.43 1.45 1.44 1.49 1.49 1.41 1.42 1.40 1.39 1.31 1.22 1.22 1.29 1.37 1.45 1.55 1.71 1.82 1.92 1.99 2.12
0.42 0.55 0.74 1.08 1.22 1.19 1.05 1.03 0.93 0.70 0.60 0.61 0.66 0.75 0.79 0.89 1.17 1.47 1.75 1.92 1.74 1.49 1.42 1.41 1.36 1.37 1.47 1.48 1.43 1.41 1.48 1.48 1.45 1.45 1.40 1.37 1.37 1.27 1.17 1.12 1.09 1.07 1.03 1.09 1.28 1.47 1.60 1.70 1.86
0.43 0.60 0.77 1.02 1.13 1.42 1.60 1.49 1.12 1.10 1.07 1.11 1.19 1.22 1.22 1.31 1.30 1.48 1.71 1.91 1.83 1.51 1.27 1.32 1.38 1.40 1.43 1.43 1.44 1.43 1.42 1.32 1.30 1.33 1.30 1.27 1.27 1.30 1.26 1.16 1.09 1.17 1.15 1.10 1.16 1.21 1.27 1.36 1.52
0.52 0.68 0.88 1.27 1.19 1.16 1.45 1.51 1.16 1.13 1.13 1.20 1.36 1.42 1.41 1.31 1.22 1.21 1.29 1.37 1.45 1.33 1.12 1.08 1.24 1.35 1.36 1.36 1.39 1.37 1.26 1.18 1.17 1.17 1.08 0.97 0.91 0.92 1.02 1.14 1.07 1.03 1.05 1.07 1.14 1.13 1.16 1.22 1.34

GEFSSGP_prec_meanprecacc_324.txt.gz
Total_Precipitation_Accumulation
1.62 1.62 2.56 3.79 4.48 3.62 3.19 2.98 2.52 2.20 1.67 1.31 1.06 1.09 1.53 1.96 2.21 2.57 2.62 2.66 1.75 1.53 1.78 2.39 3.08 2.95 2.73 2.66 2.72 2.65 2.46 2.18 2.01 1.99 2.03 2.03 1.98 1.98 1.99 2.00 1.98 2.02 1.98 1.88 2.04 2.31 2.32 2.25 2.23
1.27 2.03 3.19 4.35 3.99 3.12 3.17 2.88 2.47 2.02 1.46 1.07 0.87 0.85 0.97 0.94 0.87 1.44 2.66 2.84 1.70 1.37 1.54 1.85 2.76 2.74 2.70 2.68 2.50 2.44 2.21 1.94 1.80 1.79 1.81 1.84 1.96 2.17 2.25 2.19 2.13 2.13 1.93 1.77 1.80 2.19 2.32 2.27 2.14
1.74 2.75 3.81 4.09 3.13 2.89 3.18 2.86 2.29 1.50 1.09 0.95 0.89 0.79 0.89 1.15 1.19 1.77 2.57 2.10 1.55 1.38 1.59 2.25 2.84 2.62 2.57 2.47 2.29 2.27 2.15 1.92 1.81 1.78 1.76 1.84 2.10 2.26 2.24 2.26 2.21 2.14 1.97 1.88 1.97 2.33 2.24 2.19 2.08
2.25 3.29 3.68 3.34 2.73 2.44 2.46 2.39 1.98 1.47 1.11 0.78 0.79 0.91 0.89 1.26 1.45 1.76 1.93 1.54 1.39 1.40 1.58 2.23 2.58 2.33 2.23 2.19 2.15 2.04 2.08 2.10 1.90 1.73 1.78 1.98 2.35 2.39 2.39 2.43 2.19 2.14 2.05 2.07 2.17 2.35 2.32 2.24 2.19
2.69 3.35 3.38 3.11 2.73 2.44 2.05 1.87 1.77 1.64 1.29 0.93 0.88 1.08 1.36 1.86 1.74 1.60 1.59 1.39 1.25 1.22 1.33 1.78 2.27 2.10 2.00 2.00 1.99 1.89 1.98 2.11 2.00 1.77 1.88 2.14 2.46 2.50 2.46 2.35 2.16 2.17 2.16 2.21 2.42 2.44 2.46 2.35 2.20
3.16 3.10 3.21 3.15 2.93 2.59 2.17 1.62 1.48 1.51 1.21 0.99 0.98 1.16 1.79 2.25 2.05 1.89 1.60 1.59 1.39 1.24 1.19 1.38 1.86 1.96 1.83 1.86 2.00 1.91 1.90 2.01 1.96 1.88 1.91 2.08 2.46 2.44 2.41 2.31 2.16 2.10 2.19 2.43 2.75 2.67 2.54 2.34 2.24
3.07 2.94 2.95 2.60 2.68 2.92 2.28 1.41 1.46 1.48 1.37 1.15 0.89 1.16 1.71 2.04 1.88 1.77 1.57 1.56 1.59 1.52 1.39 1.27 1.33 1.52 1.65 1.78 1.93 1.92 1.89 1.86 1.79 1.89 1.94 2.22 2.64 2.39 2.22 2.22 2.15 2.12 2.23 2.37 2.58 2.50 2.38 2.34 2.33
2.48 2.57 2.51 2.50 2.70 2.88 2.06 1.27 1.15 1.35 1.33 0.92 0.96 1.30 1.56 1.55 1.46 1.46 1.52 1.67 1.66 1.61 1.47 1.26 1.15 1.19 1.36 1.42 1.62 1.87 1.92 1.85 1.74 1.83 1.99 2.27 2.66 2.41 2.20 2.09 2.25 2.34 2.32 2.45 2.62 2.48 2.32 2.33 2.24
2.06 2.57 2.85 2.88 2.78 2.45 1.64 1.32 1.09 0.97 0.99 0.90 0.91 1.02 1.12 1.02 1.12 1.27 1.29 1.35 1.47 1.39 1.29 1.19 1.13 1.17 1.29 1.35 1.42 1.76 1.83 1.74 1.57 1.57 1.87 1.99 2.12 2.11 2.17 2.24 2.56 2.55 2.55 2.63 2.72 2.68 2.46 2.19 2.09
2.12 2.57 2.60 2.10 1.71 1.63 1.39 1.24 1.12 1.19 1.26 1.07 1.03 1.05 1.07 1.06 1.11 1.14 1.13 1.15 1.18 1.11 1.00 0.97 0.96 1.04 1.16 1.22 1.59 1.89 1.69 1.62 1.41 1.44 1.52 1.67 1.88 2.13 2.01 2.28 2.71 2.62 2.54 2.49 2.62 2.62 2.24 1.74 1.45
1.74 2.14 1.80 1.54 1.27 1.08 1.13 1.12 0.90 1.10 1.33 1.12 1.07 1.05 1.09 1.18 1.14 1.13 1.10 0.99 0.95 0.86 0.78 0.74 0.68 0.69 0.78 1.02 1.38 1.70 1.86 1.87 1.86 1.68 1.56 1.65 1.47 1.48 1.47 1.56 1.77 1.85 1.89 1.81 1.92 2.03 1.74 1.46 1.38
1.65 1.61 1.44 1.42 1.05 1.01 1.01 0.96 0.91 0.97 1.09 0.98 1.03 0.94 0.95 1.05 1.06 1.02 1.06 0.98 0.87 0.82 0.78 0.69 0.65 0.60 0.63 0.71 0.92 1.15 1.33 1.46 1.56 1.48 1.31 1.44 1.38 1.31 1.33 1.36 1.34 1.33 1.41 1.54 1.53 1.64 1.62 1.43 1.32
1.71 1.68 1.36 1.12 0.99 0.94 0.87 0.85 0.86 0.96 0.92 0.83 0.93 1.00 1.03 1.03 1.03 1.07 1.12 1.10 0.96 0.93 0.92 0.82 0.70 0.66 0.66 0.71 0.78 0.86 1.05 1.18 1.23 1.31 1.25 1.25 1.36 1.39 1.35 1.26 1.24 1.15 1.22 1.36 1.47 1.49 1.53 1.55 1.47
1.52 1.50 1.51 1.32 1.10 1.00 0.99 0.88 0.77 0.96 0.94 0.90 1.00 1.08 1.05 1.06 0.97 0.96 1.01 1.09 1.08 1.03 0.97 0.93 0.82 0.79 0.75 0.74 0.76 0.84 0.93 0.99 1.02 1.03 1.03 1.14 1.29 1.33 1.35 1.32 1.36 1.30 1.30 1.40 1.41 1.34 1.48 1.66 1.58
1.37 1.64 1.66 1.48 1.20 1.07 1.09 1.23 0.95 0.91 0.99 1.02 1.13 1.07 0.99 1.01 0.94 0.91 0.90 0.96 1.01 0.98 0.91 0.91 0.92 0.93 0.92 0.88 0.81 0.81 0.92 1.00 1.00 0.98 0.90 0.93 1.06 1.16 1.26 1.28 1.27 1.30 1.42 1.47 1.52 1.35 1.40 1.45 1.45
1.74 2.13 2.28 1.65 1.35 1.15 1.33 1.55 1.08 1.03 1.09 1.05 1.06 1.03 0.96 0.92 0.87 0.86 0.88 0.86 0.85 0.80 0.79 0.88 0.88 0.91 0.95 0.95 0.95 0.97 0.99 1.08 1.03 1.02 0.94 0.90 0.94 1.06 1.23 1.27 1.23 1.23 1.42 1.57 1.66 1.56 1.56 1.54 1.52
2.02 2.13 2.02 1.66 1.30 1.19 1.27 1.28 1.01 1.02 1.09 0.94 0.93 0.91 0.85 0.78 0.76 0.72 0.76 0.80 0.78 0.73 0.74 0.76 0.81 0.80 0.87 0.93 0.97 1.09 1.13 1.15 1.11 1.10 1.01 0.99 1.05 1.16 1.33 1.44 1.44 1.41 1.46 1.52 1.52 1.62 1.66 1.66 1.66
1.69 1.58 1.47 1.41 1.16 1.10 1.12 0.96 0.83 0.88 0.92 0.85 0.75 0.68 0.67 0.67 0.63 0.61 0.64 0.69 0.71 0.72 0.71 0.70 0.75 0.77 0.80 0.91 1.02 1.21 1.34 1.33 1.33 1.23 1.15 1.19 1.35 1.50 1.62 1.62 1.69 1.72 1.66 1.69 1.67 1.74 1.73 1.66 1.73
1.10 1.21 1.24 1.15 0.87 0.91 0.93 0.79 0.75 0.76 0.79 0.76 0.68 0.57 0.55 0.57 0.56 0.53 0.56 0.62 0.64 0.68 0.69 0.70 0.68 0.74 0.77 0.81 0.96 1.20 1.48 1.59 1.68 1.59 1.39 1.34 1.47 1.77 2.02 1.96 2.02 2.08 2.02 2.00 2.00 2.26 2.22 1.96 1.78
1.05 1.27 1.24 1.11 0.78 0.75 0.78 0.69 0.61 0.60 0.67 0.62 0.59 0.57 0.50 0.51 0.46 0.43 0.46 0.50 0.53 0.55 0.61 0.65 0.65 0.71 0.73 0.78 0.96 1.14 1.31 1.32 1.47 1.58 1.55 1.47 1.46 1.64 1.81 2.08 2.22 2.18 2.32 2.42 2.39 2.77 2.93 2.44 2.01
1.04 1.07 1.04 1.02 0.83 0.73 0.71 0.78 0.60 0.52 0.56 0.53 0.47 0.49 0.45 0.46 0.47 0.45 0.43 0.46 0.47 0.47 0.47 0.50 0.53 0.61 0.71 0.83 1.05 1.29 1.53 1.61 1.63 1.53 1.60 1.61 1.51 1.58 1.73 1.88 2.02 2.06 2.21 2.40 2.52 2.84 3.40 3.17 2.50
0.97 0.71 0.65 0.72 0.94 1.01 0.82 1.04 0.71 0.57 0.62 0.55 0.46 0.42 0.39 0.42 0.46 0.54 0.50 0.49 0.46 0.45 0.44 0.47 0.54 0.68 0.88 1.06 1.28 1.52 1.72 1.78 1.65 1.64 1.66 1.55 1.46 1.45 1.59 1.72 1.83 1.96 2.01 2.20 2.29 2.43 3.02 3.45 3.10
0.65 0.55 0.54 0.62 0.84 0.84 0.64 0.78 0.69 0.57 0.70 0.64 0.52 0.46 0.40 0.40 0.43 0.47 0.48 0.51 0.52 0.53 0.59 0.61 0.76 0.98 1.22 1.43 1.69 1.98 1.95 1.83 1.74 1.68 1.64 1.59 1.57 1.53 1.54 1.72 1.77 1.78 1.87 2.02 2.36 2.63 2.93 3.19 3.22
0.47 0.56 0.63 0.71 0.91 0.91 0.55 0.65 0.71 0.55 0.58 0.63 0.58 0.49 0.41 0.37 0.44 0.54 0.62 0.71 0.79 0.83 0.99 1.18 1.38 1.52 1.61 1.73 1.88 2.00 1.96 1.96 1.91 1.71 1.61 1.59 1.64 1.69 1.69 1.74 1.77 1.75 1.79 1.92 2.18 2.50 2.73 3.05 3.30
0.49 0.84 1.23 1.26 1.23 0.87 0.45 0.64 0.71 0.51 0.44 0.48 0.51 0.43 0.37 0.39 0.49 0.65 0.83 0.97 1.11 1.27 1.43 1.56 1.71 1.84 1.78 1.75 1.81 1.85 1.83 1.80 1.80 1.73 1.65 1.58 1.58 1.62 1.65 1.72 1.83 1.90 1.96 2.09 2.27 2.45 2.40 2.59 3.02
0.53 0.79 1.28 1.41 1.17 0.81 0.59 0.85 0.79 0.56 0.44 0.37 0.32 0.29 0.40 0.54 0.67 0.79 0.88 1.01 1.19 1.38 1.47 1.47 1.55 1.67 1.66 1.62 1.61 1.59 1.63 1.62 1.58 1.50 1.47 1.52 1.60 1.58 1.52 1.55 1.65 1.76 1.95 2.01 2.09 2.16 2.13 2.23 2.48
0.52 0.58 0.63 0.92 0.78 0.76 0.78 0.90 0.80 0.53 0.46 0.39 0.35 0.37 0.53 0.75 0.95 1.11 1.22 1.35 1.40 1.46 1.55 1.46 1.46 1.53 1.54 1.49 1.44 1.47 1.46 1.50 1.50 1.42 1.42 1.41 1.40 1.32 1.24 1.25 1.31 1.38 1.45 1.56 1.72 1.83 1.93 2.00 2.13
0.42 0.55 0.75 1.10 1.24 1.21 1.06 1.04 0.94 0.71 0.61 0.63 0.69 0.77 0.82 0.93 1.19 1.49 1.77 1.94 1.78 1.54 1.47 1.45 1.38 1.40 1.49 1.51 1.45 1.43 1.51 1.51 1.47 1.46 1.40 1.37 1.38 1.29 1.19 1.14 1.11 1.09 1.05 1.10 1.29 1.49 1.60 1.71 1.87
0.43 0.60 0.77 1.02 1.14 1.45 1.62 1.50 1.13 1.12 1.12 1.16 1.23 1.26 1.27 1.36 1.34 1.51 1.73 1.93 1.86 1.55 1.32 1.35 1.42 1.43 1.45 1.46 1.46 1.45 1.43 1.34 1.32 1.34 1.32 1.28 1.28 1.32 1.28 1.18 1.12 1.20 1.18 1.13 1.19 1.22 1.29 1.37 1.52
0.53 0.68 0.89 1.28 1.20 1.18 1.48 1.53 1.18 1.16 1.19 1.27 1.42 1.46 1.46 1.37 1.27 1.26 1.31 1.39 1.48 1.38 1.17 1.12 1.28 1.38 1.38 1.38 1.41 1.39 1.28 1.19 1.19 1.18 1.09 0.98 0.92 0.93 1.04 1.16 1.09 1.06 1.08 1.10 1.16 1.15 1.18 1.23 1.35

GEFSSGP_prec_meanprecacc_330.txt.gz
Total_Precipitation_Accumulation
1.64 1.64 2.58 3.80 4.49 3.63 3.19 2.99 2.53 2.22 1.68 1.33 1.09 1.12 1.56 1.98 2.23 2.59 2.63 2.67 1.76 1.54 1.80 2.43 3.16 3.03 2.79 2.73 2.78 2.71 2.53 2.26 2.09 2.08 2.09 2.10 2.05 2.06 2.06 2.09 2.05 2.11 2.04 1.92 2.09 2.37 2.38 2.33 2.32
1.28 2.04 3.21 4.36 4.00 3.12 3.18 2.89 2.48 2.04 1.48 1.09 0.88 0.87 0.99 0.96 0.88 1.45 2.68 2.85 1.71 1.38 1.56 1.89 2.81 2.80 2.76 2.75 2.56 2.51 2.27 2.00 1.88 1.87 1.88 1.90 2.02 2.22 2.31 2.26 2.21 2.21 1.99 1.81 1.85 2.24 2.39 2.35 2.22
1.75 2.78 3.83 4.09 3.13 2.90 3.19 2.86 2.29 1.52 1.11 0.97 0.90 0.80 0.90 1.16 1.20 1.78 2.58 2.13 1.57 1.39 1.62 2.30 2.91 2.69 2.63 2.53 2.35 2.34 2.21 1.98 1.87 1.85 1.84 1.93 2.20 2.34 2.33 2.36 2.30 2.20 2.02 1.93 2.02 2.38 2.31 2.27 2.16
2.27 3.31 3.70 3.35 2.73 2.44 2.47 2.40 1.99 1.48 1.12 0.79 0.79 0.91 0.89 1.28 1.47 1.78 1.94 1.56 1.42 1.43 1.63 2.29 2.66 2.39 2.28 2.25 2.20 2.11 2.16 2.18 1.97 1.80 1.86 2.08 2.47 2.50 2.50 2.53 2.29 2.21 2.10 2.12 2.22 2.40 2.38 2.30 2.24
2.69 3.36 3.39 3.11 2.73 2.45 2.06 1.88 1.78 1.65 1.30 0.93 0.88 1.08 1.37 1.88 1.76 1.62 1.60 1.41 1.28 1.25 1.37 1.85 2.35 2.16 2.07 2.06 2.05 1.96 2.05 2.17 2.06 1.83 1.96 2.23 2.58 2.63 2.55 2.42 2.23 2.24 2.21 2.26 2.47 2.49 2.52 2.41 2.25
3.16 3.10 3.21 3.15 2.93 2.59 2.18 1.64 1.49 1.51 1.22 0.99 0.98 1.16 1.80 2.26 2.08 1.92 1.61 1.61 1.43 1.27 1.21 1.41 1.91 2.02 1.89 1.91 2.05 1.97 1.96 2.06 2.01 1.93 1.97 2.14 2.53 2.50 2.48 2.39 2.24 2.17 2.24 2.48 2.80 2.72 2.58 2.38 2.28
3.07 2.95 2.95 2.60 2.68 2.93 2.29 1.42 1.47 1.48 1.37 1.15 0.90 1.17 1.72 2.05 1.89 1.78 1.58 1.57 1.61 1.54 1.40 1.28 1.35 1.55 1.71 1.84 1.99 1.98 1.94 1.91 1.84 1.94 1.98 2.27 2.69 2.43 2.28 2.28 2.23 2.20 2.29 2.42 2.62 2.53 2.41 2.37 2.37
2.48 2.57 2.52 2.50 2.70 2.88 2.07 1.27 1.16 1.35 1.33 0.92 0.96 1.31 1.57 1.56 1.48 1.47 1.53 1.68 1.67 1.62 1.48 1.27 1.17 1.21 1.39 1.48 1.68 1.93 1.98 1.90 1.78 1.86 2.03 2.31 2.73 2.47 2.25 2.14 2.31 2.42 2.40 2.51 2.67 2.53 2.37 2.38 2.29
2.07 2.57 2.86 2.88 2.78 2.45 1.66 1.33 1.09 0.98 0.99 0.90 0.91 1.02 1.13 1.02 1.12 1.28 1.29 1.35 1.48 1.41 1.30 1.19 1.14 1.18 1.30 1.38 1.47 1.82 1.87 1.77 1.60 1.60 1.89 2.03 2.27 2.21 2.20 2.28 2.61 2.61 2.62 2.70 2.80 2.76 2.54 2.26 2.16
2.12 2.57 2.61 2.10 1.71 1.63 1.40 1.25 1.12 1.20 1.26 1.07 1.03 1.05 1.08 1.07 1.12 1.15 1.14 1.15 1.19 1.13 1.01 0.97 0.96 1.04 1.16 1.22 1.60 1.90 1.70 1.63 1.42 1.46 1.54 1.71 2.07 2.35 2.08 2.31 2.77 2.71 2.65 2.60 2.73 2.74 2.35 1.84 1.55
1.74 2.14 1.81 1.55 1.27 1.08 1.14 1.13 0.91 1.10 1.33 1.12 1.07 1.05 1.09 1.19 1.16 1.16 1.12 1.00 0.95 0.88 0.81 0.76 0.70 0.70 0.79 1.03 1.39 1.71 1.86 1.88 1.87 1.70 1.59 1.69 1.60 1.71 1.63 1.62 1.80 1.88 1.93 1.87 1.99 2.12 1.83 1.54 1.47
1.65 1.61 1.44 1.43 1.05 1.02 1.02 0.96 0.91 0.97 1.09 0.98 1.03 0.94 0.95 1.06 1.07 1.05 1.10 1.00 0.88 0.83 0.79 0.71 0.66 0.62 0.64 0.73 0.93 1.17 1.35 1.48 1.57 1.49 1.35 1.50 1.47 1.47 1.50 1.45 1.37 1.34 1.43 1.55 1.55 1.69 1.68 1.46 1.36
1.72 1.68 1.36 1.12 1.00 0.94 0.87 0.85 0.86 0.97 0.92 0.83 0.93 1.00 1.03 1.03 1.04 1.09 1.16 1.15 0.99 0.95 0.93 0.83 0.71 0.67 0.67 0.73 0.79 0.88 1.06 1.20 1.24 1.33 1.28 1.30 1.44 1.47 1.42 1.30 1.27 1.16 1.23 1.37 1.48 1.50 1.55 1.57 1.50
1.52 1.50 1.52 1.33 1.11 1.02 1.00 0.88 0.78 0.97 0.95 0.90 1.00 1.09 1.05 1.07 0.98 0.97 1.03 1.13 1.13 1.07 1.00 0.95 0.83 0.80 0.76 0.75 0.77 0.85 0.94 0.99 1.03 1.05 1.06 1.17 1.35 1.38 1.38 1.35 1.38 1.31 1.31 1.41 1.42 1.35 1.48 1.66 1.59
1.38 1.64 1.67 1.49 1.21 1.09 1.12 1.25 0.97 0.93 0.99 1.03 1.14 1.09 1.00 1.02 0.96 0.92 0.91 0.97 1.04 1.03 0.96 0.95 0.94 0.94 0.92 0.89 0.82 0.82 0.92 1.01 1.01 0.99 0.92 0.95 1.10 1.20 1.28 1.30 1.28 1.32 1.44 1.48 1.53 1.36 1.40 1.46 1.46
1.74 2.13 2.29 1.66 1.37 1.17 1.36 1.58 1.13 1.05 1.10 1.06 1.08 1.04 0.97 0.93 0.89 0.87 0.89 0.87 0.87 0.83 0.83 0.91 0.90 0.93 0.96 0.97 0.96 0.97 0.99 1.09 1.04 1.02 0.95 0.91 0.97 1.10 1.27 1.29 1.25 1.25 1.43 1.58 1.67 1.57 1.56 1.54 1.52
2.03 2.13 2.03 1.67 1.33 1.23 1.32 1.33 1.08 1.07 1.11 0.95 0.94 0.91 0.86 0.79 0.77 0.73 0.77 0.80 0.80 0.75 0.77 0.79 0.83 0.82 0.89 0.95 0.98 1.09 1.14 1.16 1.12 1.10 1.02 1.00 1.06 1.18 1.37 1.49 1.48 1.43 1.47 1.53 1.53 1.63 1.66 1.66 1.67
1.69 1.58 1.48 1.42 1.17 1.11 1.15 0.99 0.88 0.94 0.95 0.86 0.75 0.69 0.68 0.68 0.64 0.62 0.65 0.70 0.72 0.75 0.74 0.73 0.78 0.79 0.82 0.93 1.03 1.22 1.35 1.33 1.33 1.23 1.15 1.20 1.35 1.50 1.64 1.66 1.74 1.77 1.70 1.71 1.69 1.76 1.73 1.66 1.74
1.11 1.21 1.25 1.16 0.88 0.91 0.94 0.81 0.78 0.83 0.85 0.78 0.68 0.57 0.55 0.58 0.56 0.54 0.57 0.63 0.66 0.70 0.72 0.72 0.71 0.77 0.80 0.83 0.97 1.20 1.48 1.60 1.69 1.59 1.39 1.34 1.48 1.77 2.02 1.97 2.05 2.13 2.08 2.05 2.04 2.28 2.24 1.98 1.79
1.06 1.27 1.24 1.11 0.79 0.75 0.79 0.70 0.64 0.67 0.73 0.64 0.60 0.57 0.51 0.52 0.47 0.44 0.47 0.52 0.55 0.58 0.64 0.68 0.68 0.74 0.76 0.79 0.97 1.15 1.32 1.34 1.49 1.59 1.55 1.47 1.46 1.64 1.81 2.09 2.23 2.21 2.35 2.47 2.44 2.82 2.97 2.47 2.03
1.04 1.07 1.04 1.02 0.83 0.73 0.72 0.79 0.62 0.56 0.60 0.54 0.48 0.50 0.46 0.47 0.48 0.46 0.44 0.48 0.50 0.49 0.49 0.53 0.57 0.65 0.75 0.86 1.07 1.31 1.55 1.64 1.64 1.54 1.61 1.62 1.53 1.59 1.73 1.88 2.03 2.08 2.23 2.42 2.54 2.87 3.43 3.19 2.52
0.97 0.71 0.65 0.72 0.94 1.01 0.83 1.06 0.73 0.61 0.65 0.57 0.47 0.43 0.40 0.43 0.46 0.55 0.51 0.50 0.47 0.47 0.48 0.51 0.60 0.73 0.91 1.09 1.30 1.54 1.74 1.79 1.66 1.65 1.67 1.56 1.48 1.46 1.59 1.73 1.84 1.96 2.02 2.20 2.30 2.44 3.03 3.46 3.12
0.65 0.55 0.54 0.63 0.84 0.84 0.64 0.79 0.71 0.59 0.72 0.65 0.53 0.46 0.41 0.40 0.44 0.48 0.49 0.52 0.54 0.56 0.63 0.68 0.83 1.03 1.27 1.46 1.71 2.00 1.97 1.85 1.75 1.69 1.65 1.60 1.59 1.55 1.55 1.73 1.78 1.79 1.88 2.02 2.36 2.63 2.94 3.20 3.24
0.47 0.56 0.64 0.72 0.92 0.91 0.56 0.66 0.73 0.56 0.59 0.65 0.59 0.50 0.42 0.37 0.45 0.55 0.63 0.74 0.82 0.87 1.04 1.24 1.45 1.58 1.66 1.77 1.90 2.01 1.98 1.98 1.92 1.72 1.62 1.59 1.65 1.71 1.71 1.76 1.78 1.75 1.80 1.93 2.18 2.50 2.73 3.06 3.31
0.49 0.85 1.23 1.27 1.23 0.88 0.45 0.65 0.72 0.53 0.45 0.51 0.53 0.43 0.38 0.39 0.50 0.66 0.85 0.99 1.14 1.31 1.48 1.61 1.75 1.89 1.82 1.78 1.82 1.86 1.85 1.82 1.82 1.74 1.66 1.59 1.58 1.64 1.67 1.73 1.85 1.91 1.96 2.09 2.28 2.45 2.40 2.59 3.02
0.53 0.79 1.28 1.42 1.17 0.81 0.59 0.85 0.79 0.57 0.44 0.40 0.33 0.30 0.40 0.55 0.68 0.80 0.89 1.03 1.21 1.42 1.52 1.53 1.60 1.72 1.70 1.65 1.63 1.61 1.65 1.65 1.60 1.52 1.49 1.53 1.62 1.60 1.54 1.57 1.66 1.77 1.95 2.02 2.10 2.16 2.13 2.23 2.48
0.52 0.58 0.64 0.92 0.78 0.76 0.78 0.91 0.81 0.54 0.46 0.41 0.36 0.38 0.54 0.75 0.95 1.11 1.24 1.37 1.43 1.50 1.60 1.50 1.50 1.56 1.57 1.52 1.47 1.50 1.49 1.54 1.53 1.44 1.44 1.43 1.43 1.35 1.25 1.26 1.32 1.39 1.47 1.57 1.73 1.84 1.94 2.01 2.13
0.42 0.55 0.75 1.10 1.24 1.21 1.06 1.05 0.95 0.71 0.61 0.63 0.70 0.78 0.83 0.93 1.19 1.50 1.78 1.96 1.80 1.57 1.51 1.49 1.42 1.43 1.53 1.54 1.48 1.46 1.54 1.54 1.50 1.48 1.42 1.39 1.40 1.31 1.21 1.16 1.11 1.10 1.07 1.12 1.32 1.51 1.62 1.72 1.88
0.43 0.60 0.78 1.03 1.15 1.45 1.62 1.51 1.14 1.13 1.12 1.16 1.24 1.27 1.28 1.37 1.35 1.52 1.75 1.95 1.88 1.58 1.34 1.38 1.45 1.47 1.49 1.49 1.49 1.47 1.46 1.37 1.34 1.36 1.33 1.30 1.30 1.34 1.30 1.20 1.13 1.21 1.19 1.15 1.22 1.26 1.32 1.39 1.54
0.53 0.68 0.89 1.28 1.20 1.18 1.48 1.53 1.18 1.17 1.20 1.28 1.43 1.47 1.47 1.38 1.28 1.28 1.34 1.41 1.50 1.40 1.20 1.15 1.30 1.42 1.42 1.40 1.43 1.41 1.30 1.22 1.21 1.20 1.12 1.00 0.94 0.94 1.05 1.18 1.10 1.07 1.09 1.11 1.18 1.19 1.24 1.28 1.38

GEFSSGP_prec_meanprecacc_336.txt.gz
Total_Precipitation_Accumulation
1.67 1.68 2.61 3.83 4.52 3.64 3.20 3.00 2.55 2.24 1.70 1.34 1.10 1.14 1.57 1.99 2.24 2.60 2.65 2.68 1.77 1.55 1.82 2.46 3.21 3.10 2.87 2.79 2.83 2.75 2.57 2.31 2.16 2.15 2.19 2.22 2.21 2.19 2.15 2.17 2.15 2.21 2.12 2.00 2.18 2.47 2.48 2.44 2.44
1.29 2.05 3.21 4.36 4.01 3.13 3.19 2.90 2.50 2.06 1.49 1.10 0.89 0.88 0.99 0.97 0.89 1.46 2.69 2.86 1.71 1.40 1.59 1.92 2.86 2.86 2.83 2.82 2.63 2.58 2.32 2.06 1.94 1.94 1.96 2.00 2.10 2.31 2.40 2.37 2.33 2.32 2.09 1.90 1.94 2.35 2.47 2.44 2.32
1.75 2.78 3.84 4.10 3.14 2.91 3.20 2.89 2.31 1.53 1.11 0.97 0.91 0.81 0.90 1.17 1.21 1.79 2.59 2.13 1.58 1.41 1.65 2.34 2.97 2.78 2.77 2.65 2.44 2.42 2.28 2.05 1.94 1.92 1.92 2.03 2.28 2.43 2.45 2.48 2.42 2.30 2.11 2.00 2.09 2.45 2.36 2.34 2.24
2.27 3.31 3.70 3.35 2.75 2.47 2.49 2.42 2.00 1.49 1.13 0.79 0.80 0.92 0.90 1.29 1.48 1.79 1.95 1.56 1.43 1.44 1.65 2.34 2.74 2.51 2.46 2.43 2.36 2.25 2.27 2.27 2.06 1.88 1.94 2.18 2.58 2.62 2.64 2.66 2.39 2.30 2.17 2.19 2.28 2.45 2.43 2.36 2.32
2.70 3.36 3.39 3.12 2.74 2.45 2.06 1.89 1.79 1.65 1.31 0.93 0.88 1.09 1.38 1.89 1.78 1.63 1.60 1.41 1.29 1.25 1.39 1.89 2.41 2.25 2.20 2.23 2.24 2.14 2.18 2.27 2.16 1.94 2.07 2.36 2.73 2.80 2.72 2.55 2.32 2.31 2.28 2.33 2.52 2.56 2.58 2.48 2.33
3.16 3.10 3.21 3.15 2.94 2.60 2.18 1.64 1.49 1.52 1.22 1.00 0.98 1.17 1.82 2.28 2.10 1.93 1.61 1.61 1.44 1.27 1.22 1.44 1.95 2.08 1.97 2.02 2.18 2.11 2.10 2.18 2.10 2.01 2.06 2.24 2.67 2.69 2.64 2.52 2.35 2.25 2.32 2.54 2.85 2.77 2.63 2.42 2.33
3.08 2.95 2.96 2.60 2.69 2.94 2.30 1.42 1.47 1.49 1.37 1.16 0.90 1.18 1.73 2.07 1.91 1.79 1.59 1.58 1.62 1.55 1.41 1.29 1.37 1.58 1.76 1.91 2.07 2.09 2.06 2.01 1.90 1.99 2.04 2.36 2.82 2.58 2.42 2.44 2.39 2.33 2.40 2.49 2.68 2.58 2.45 2.41 2.41
2.48 2.58 2.52 2.51 2.71 2.89 2.08 1.28 1.16 1.37 1.33 0.92 0.97 1.31 1.58 1.57 1.48 1.47 1.53 1.68 1.68 1.63 1.49 1.27 1.17 1.22 1.44 1.56 1.75 2.01 2.08 1.98 1.85 1.91 2.08 2.36 2.81 2.57 2.35 2.25 2.44 2.55 2.50 2.60 2.74 2.58 2.41 2.43 2.34
2.07 2.58 2.86 2.89 2.79 2.46 1.68 1.34 1.10 0.98 0.99 0.90 0.91 1.02 1.13 1.03 1.12 1.28 1.30 1.36 1.49 1.42 1.31 1.20 1.14 1.19 1.32 1.42 1.51 1.89 1.93 1.82 1.63 1.63 1.92 2.05 2.29 2.25 2.25 2.33 2.68 2.70 2.70 2.77 2.86 2.82 2.59 2.32 2.21
2.12 2.58 2.62 2.10 1.71 1.64 1.41 1.26 1.12 1.20 1.26 1.07 1.04 1.05 1.08 1.08 1.13 1.15 1.14 1.16 1.20 1.14 1.02 0.98 0.97 1.06 1.18 1.23 1.62 1.95 1.73 1.65 1.44 1.47 1.55 1.72 2.09 2.37 2.10 2.34 2.80 2.76 2.70 2.65 2.78 2.79 2.42 1.91 1.61
1.74 2.14 1.81 1.55 1.27 1.08 1.14 1.13 0.91 1.10 1.33 1.13 1.08 1.05 1.10 1.20 1.17 1.17 1.13 1.01 0.97 0.90 0.82 0.77 0.71 0.71 0.80 1.05 1.41 1.73 1.87 1.88 1.88 1.71 1.61 1.70 1.63 1.76 1.67 1.63 1.82 1.90 1.96 1.91 2.05 2.20 1.93 1.63 1.56
1.65 1.62 1.45 1.43 1.05 1.02 1.02 0.96 0.92 0.98 1.10 0.98 1.03 0.94 0.95 1.06 1.08 1.06 1.11 1.01 0.89 0.84 0.80 0.71 0.67 0.62 0.65 0.74 0.94 1.17 1.36 1.48 1.58 1.50 1.37 1.51 1.50 1.53 1.56 1.48 1.39 1.36 1.44 1.57 1.59 1.75 1.75 1.53 1.43
1.72 1.68 1.37 1.13 1.00 0.95 0.88 0.86 0.87 0.97 0.93 0.83 0.93 1.00 1.03 1.04 1.05 1.10 1.17 1.17 1.01 0.97 0.94 0.84 0.72 0.68 0.68 0.74 0.80 0.88 1.07 1.20 1.25 1.34 1.30 1.33 1.47 1.52 1.48 1.35 1.29 1.17 1.24 1.38 1.49 1.52 1.57 1.60 1.53
1.53 1.51 1.52 1.34 1.13 1.03 1.02 0.89 0.80 0.99 0.96 0.91 1.00 1.09 1.05 1.07 0.98 0.98 1.04 1.14 1.14 1.09 1.01 0.96 0.84 0.81 0.77 0.76 0.79 0.86 0.95 1.00 1.04 1.05 1.06 1.18 1.37 1.41 1.43 1.40 1.40 1.32 1.32 1.41 1.42 1.36 1.49 1.67 1.60
1.38 1.64 1.67 1.51 1.24 1.11 1.14 1.28 0.99 0.94 1.01 1.03 1.15 1.09 1.00 1.02 0.96 0.93 0.92 0.98 1.05 1.05 0.98 0.97 0.95 0.96 0.94 0.91 0.83 0.83 0.93 1.01 1.02 0.99 0.92 0.96 1.11 1.21 1.31 1.33 1.30 1.33 1.44 1.49 1.54 1.36 1.41 1.46 1.46
1.75 2.14 2.29 1.68 1.41 1.20 1.39 1.61 1.15 1.07 1.11 1.07 1.08 1.05 0.97 0.94 0.89 0.88 0.90 0.88 0.88 0.86 0.85 0.92 0.91 0.94 0.98 0.98 0.97 0.98 1.00 1.09 1.04 1.02 0.95 0.91 0.98 1.11 1.28 1.30 1.26 1.26 1.44 1.58 1.67 1.57 1.56 1.54 1.53
2.03 2.14 2.03 1.69 1.37 1.26 1.35 1.36 1.11 1.08 1.12 0.96 0.94 0.92 0.87 0.80 0.78 0.74 0.77 0.82 0.81 0.78 0.79 0.80 0.85 0.83 0.90 0.96 0.99 1.10 1.14 1.17 1.13 1.10 1.02 1.00 1.07 1.19 1.38 1.50 1.49 1.44 1.48 1.54 1.54 1.63 1.67 1.66 1.67
1.70 1.59 1.48 1.43 1.19 1.14 1.18 1.03 0.91 0.96 0.96 0.86 0.76 0.69 0.68 0.69 0.64 0.62 0.66 0.71 0.73 0.76 0.76 0.75 0.79 0.80 0.83 0.95 1.05 1.23 1.36 1.35 1.34 1.24 1.16 1.20 1.35 1.51 1.66 1.67 1.76 1.78 1.71 1.72 1.69 1.76 1.74 1.67 1.74
1.11 1.22 1.25 1.16 0.89 0.93 0.96 0.85 0.83 0.85 0.86 0.79 0.69 0.58 0.56 0.58 0.56 0.54 0.59 0.65 0.67 0.71 0.73 0.74 0.72 0.78 0.82 0.86 0.99 1.23 1.50 1.61 1.71 1.62 1.40 1.34 1.48 1.78 2.04 1.99 2.07 2.14 2.09 2.07 2.05 2.29 2.24 1.98 1.79
1.06 1.27 1.24 1.11 0.79 0.75 0.81 0.75 0.67 0.68 0.74 0.64 0.60 0.58 0.52 0.52 0.48 0.45 0.48 0.53 0.56 0.59 0.65 0.70 0.69 0.76 0.79 0.83 1.01 1.19 1.34 1.36 1.51 1.62 1.56 1.48 1.46 1.65 1.82 2.10 2.25 2.22 2.38 2.49 2.46 2.82 2.97 2.47 2.03
1.04 1.07 1.04 1.02 0.83 0.74 0.74 0.81 0.63 0.57 0.60 0.55 0.49 0.50 0.46 0.47 0.48 0.46 0.45 0.49 0.50 0.50 0.51 0.55 0.59 0.67 0.79 0.90 1.11 1.34 1.57 1.65 1.66 1.55 1.62 1.63 1.53 1.60 1.74 1.89 2.05 2.09 2.26 2.45 2.58 2.90 3.44 3.21 2.54
0.98 0.71 0.65 0.73 0.94 1.02 0.83 1.06 0.74 0.61 0.65 0.57 0.47 0.43 0.40 0.43 0.46 0.55 0.51 0.51 0.48 0.48 0.50 0.53 0.62 0.76 0.95 1.13 1.34 1.57 1.76 1.81 1.68 1.66 1.69 1.58 1.49 1.47 1.60 1.74 1.85 1.98 2.04 2.24 2.34 2.48 3.07 3.48 3.15
0.66 0.55 0.54 0.63 0.85 0.85 0.65 0.79 0.72 0.60 0.72 0.65 0.53 0.46 0.41 0.40 0.44 0.48 0.49 0.53 0.55 0.58 0.65 0.70 0.84 1.06 1.31 1.50 1.75 2.03 1.99 1.87 1.77 1.71 1.67 1.62 1.60 1.56 1.56 1.73 1.79 1.81 1.89 2.04 2.38 2.66 2.97 3.23 3.26
0.47 0.56 0.64 0.72 0.92 0.92 0.57 0.67 0.74 0.57 0.60 0.65 0.59 0.50 0.42 0.38 0.45 0.55 0.63 0.74 0.83 0.87 1.05 1.26 1.47 1.61 1.70 1.81 1.94 2.05 2.01 2.01 1.94 1.74 1.64 1.61 1.66 1.72 1.72 1.76 1.79 1.76 1.81 1.93 2.19 2.51 2.75 3.08 3.33
0.49 0.85 1.24 1.27 1.24 0.89 0.45 0.65 0.73 0.53 0.45 0.51 0.53 0.44 0.38 0.40 0.50 0.66 0.85 0.99 1.14 1.31 1.49 1.62 1.77 1.92 1.87 1.82 1.86 1.89 1.88 1.85 1.84 1.76 1.68 1.61 1.59 1.65 1.68 1.74 1.86 1.92 1.97 2.10 2.28 2.46 2.41 2.60 3.03
0.53 0.79 1.28 1.42 1.17 0.81 0.59 0.86 0.80 0.57 0.45 0.40 0.33 0.30 0.40 0.55 0.68 0.81 0.89 1.03 1.22 1.43 1.53 1.54 1.62 1.75 1.74 1.69 1.66 1.65 1.69 1.69 1.64 1.55 1.51 1.55 1.63 1.61 1.55 1.58 1.67 1.78 1.96 2.02 2.10 2.16 2.13 2.24 2.49
0.52 0.58 0.64 0.92 0.78 0.76 0.78 0.91 0.81 0.54 0.46 0.41 0.36 0.38 0.54 0.75 0.95 1.12 1.24 1.37 1.43 1.51 1.61 1.51 1.51 1.59 1.60 1.55 1.50 1.54 1.52 1.56 1.56 1.47 1.46 1.45 1.45 1.37 1.26 1.26 1.33 1.40 1.47 1.58 1.74 1.85 1.94 2.02 2.14
0.42 0.55 0.75 1.10 1.25 1.21 1.06 1.05 0.95 0.72 0.61 0.64 0.70 0.78 0.83 0.93 1.19 1.50 1.79 1.96 1.81 1.58 1.52 1.50 1.43 1.44 1.54 1.57 1.51 1.49 1.57 1.57 1.53 1.51 1.44 1.41 1.43 1.33 1.22 1.16 1.13 1.12 1.08 1.13 1.32 1.52 1.63 1.73 1.89
0.43 0.60 0.78 1.03 1.15 1.45 1.63 1.51 1.14 1.13 1.12 1.16 1.24 1.27 1.28 1.37 1.35 1.52 1.76 1.95 1.89 1.58 1.35 1.38 1.46 1.47 1.50 1.51 1.52 1.52 1.50 1.40 1.38 1.40 1.36 1.32 1.33 1.36 1.32 1.21 1.14 1.22 1.20 1.16 1.24 1.28 1.34 1.41 1.55
0.53 0.68 0.89 1.28 1.21 1.19 1.49 1.53 1.19 1.17 1.20 1.28 1.43 1.47 1.47 1.38 1.28 1.28 1.35 1.42 1.50 1.40 1.20 1.15 1.30 1.43 1.43 1.42 1.45 1.45 1.35 1.25 1.24 1.24 1.16 1.03 0.96 0.96 1.07 1.19 1.12 1.08 1.09 1.11 1.19 1.21 1.25 1.30 1.39

GEFSSGP_prec_meanprecacc_342.txt.gz
Total_Precipitation_Accumulation
1.67 1.69 2.64 3.90 4.67 3.74 3.24 3.02 2.57 2.27 1.71 1.35 1.11 1.14 1.59 2.01 2.27 2.65 2.67 2.70 1.78 1.56 1.84 2.49 3.24 3.14 2.91 2.86 2.89 2.81 2.65 2.40 2.26 2.35 2.35 2.35 2.34 2.31 2.23 2.24 2.23 2.29 2.20 2.09 2.28 2.59 2.59 2.54 2.54
1.29 2.06 3.26 4.44 4.12 3.21 3.23 2.92 2.52 2.08 1.50 1.11 0.90 0.88 1.00 0.97 0.89 1.47 2.70 2.87 1.72 1.42 1.62 1.95 2.89 2.90 2.87 2.88 2.70 2.64 2.40 2.13 2.02 2.07 2.13 2.16 2.24 2.42 2.50 2.45 2.43 2.43 2.19 2.01 2.05 2.45 2.55 2.52 2.39
1.76 2.79 3.88 4.17 3.21 2.96 3.24 2.91 2.33 1.54 1.12 0.99 0.92 0.81 0.91 1.19 1.21 1.80 2.60 2.14 1.59 1.43 1.68 2.39 3.04 2.85 2.82 2.70 2.49 2.47 2.35 2.14 2.02 2.01 2.04 2.17 2.38 2.53 2.55 2.58 2.52 2.43 2.21 2.09 2.17 2.52 2.43 2.39 2.30
2.28 3.33 3.73 3.41 2.80 2.50 2.50 2.44 2.02 1.49 1.13 0.81 0.80 0.92 0.91 1.30 1.49 1.79 1.95 1.57 1.43 1.46 1.68 2.40 2.86 2.62 2.52 2.48 2.40 2.31 2.34 2.35 2.13 1.96 2.03 2.29 2.69 2.72 2.74 2.74 2.46 2.38 2.25 2.27 2.36 2.51 2.48 2.42 2.38
2.71 3.39 3.44 3.17 2.78 2.48 2.08 1.91 1.79 1.66 1.31 0.94 0.89 1.10 1.41 1.92 1.79 1.63 1.60 1.41 1.29 1.27 1.41 1.96 2.57 2.40 2.33 2.31 2.29 2.18 2.23 2.33 2.24 2.01 2.16 2.46 2.84 2.90 2.82 2.63 2.39 2.38 2.36 2.42 2.61 2.63 2.65 2.53 2.37
3.19 3.13 3.26 3.21 2.99 2.64 2.20 1.65 1.49 1.52 1.22 1.00 0.99 1.19 1.85 2.31 2.11 1.93 1.62 1.62 1.44 1.28 1.24 1.46 2.03 2.22 2.12 2.14 2.26 2.18 2.16 2.23 2.17 2.09 2.14 2.35 2.79 2.81 2.75 2.62 2.43 2.33 2.39 2.61 2.91 2.83 2.68 2.46 2.36
3.10 2.98 3.00 2.65 2.74 2.96 2.31 1.43 1.48 1.50 1.38 1.16 0.90 1.19 1.78 2.12 1.92 1.79 1.59 1.58 1.63 1.56 1.42 1.31 1.39 1.64 1.85 2.00 2.15 2.17 2.13 2.06 1.96 2.06 2.12 2.47 2.93 2.69 2.53 2.54 2.48 2.41 2.48 2.59 2.77 2.67 2.52 2.46 2.45
2.49 2.60 2.55 2.54 2.74 2.91 2.08 1.28 1.17 1.38 1.34 0.92 0.97 1.33 1.62 1.60 1.50 1.48 1.53 1.69 1.69 1.64 1.50 1.29 1.19 1.25 1.49 1.62 1.80 2.06 2.12 2.02 1.89 1.96 2.12 2.44 2.96 2.75 2.52 2.41 2.60 2.74 2.71 2.82 2.91 2.71 2.51 2.49 2.38
2.07 2.60 2.89 2.91 2.81 2.47 1.69 1.35 1.10 0.98 0.99 0.90 0.91 1.03 1.14 1.03 1.13 1.28 1.31 1.38 1.52 1.45 1.33 1.21 1.16 1.22 1.34 1.46 1.55 1.92 1.97 1.85 1.66 1.66 1.95 2.11 2.39 2.40 2.43 2.51 2.84 2.85 2.84 2.89 2.97 2.90 2.65 2.36 2.25
2.13 2.60 2.63 2.11 1.72 1.64 1.41 1.26 1.12 1.20 1.27 1.08 1.05 1.06 1.09 1.09 1.14 1.18 1.17 1.20 1.24 1.17 1.04 1.00 0.98 1.07 1.20 1.26 1.65 1.99 1.77 1.68 1.48 1.50 1.58 1.76 2.13 2.43 2.16 2.42 2.90 2.84 2.77 2.69 2.82 2.83 2.45 1.95 1.65
1.74 2.15 1.81 1.55 1.27 1.08 1.14 1.13 0.91 1.12 1.35 1.14 1.09 1.06 1.10 1.20 1.18 1.20 1.17 1.06 1.01 0.93 0.84 0.79 0.72 0.72 0.81 1.07 1.43 1.76 1.90 1.90 1.89 1.72 1.62 1.72 1.65 1.79 1.69 1.66 1.84 1.94 2.01 1.95 2.09 2.24 1.96 1.67 1.59
1.65 1.62 1.45 1.43 1.06 1.03 1.02 0.97 0.92 0.99 1.11 0.98 1.03 0.95 0.95 1.06 1.09 1.07 1.11 1.02 0.91 0.86 0.81 0.72 0.68 0.63 0.66 0.75 0.95 1.19 1.38 1.49 1.58 1.51 1.39 1.54 1.52 1.58 1.59 1.49 1.40 1.36 1.46 1.61 1.63 1.81 1.83 1.62 1.52
1.72 1.68 1.37 1.13 1.01 0.96 0.88 0.86 0.87 0.98 0.93 0.83 0.93 1.00 1.03 1.04 1.06 1.10 1.17 1.17 1.01 0.99 0.96 0.84 0.72 0.68 0.69 0.75 0.81 0.89 1.07 1.21 1.26 1.35 1.31 1.37 1.51 1.57 1.52 1.36 1.30 1.18 1.25 1.39 1.50 1.54 1.61 1.66 1.62
1.53 1.51 1.53 1.36 1.15 1.04 1.02 0.90 0.80 1.00 0.96 0.91 1.00 1.09 1.06 1.08 0.99 0.98 1.05 1.15 1.15 1.10 1.03 0.97 0.85 0.82 0.79 0.77 0.79 0.87 0.95 1.01 1.04 1.05 1.07 1.22 1.42 1.46 1.50 1.43 1.42 1.33 1.32 1.42 1.43 1.37 1.51 1.69 1.63
1.39 1.66 1.69 1.53 1.26 1.12 1.15 1.29 1.00 0.95 1.01 1.03 1.15 1.09 1.00 1.02 0.96 0.93 0.93 0.99 1.07 1.06 0.99 1.00 0.98 0.98 0.96 0.92 0.85 0.84 0.93 1.01 1.02 1.00 0.92 0.98 1.16 1.26 1.36 1.38 1.33 1.34 1.45 1.50 1.55 1.38 1.42 1.48 1.48
1.75 2.16 2.32 1.70 1.42 1.20 1.40 1.64 1.17 1.09 1.12 1.07 1.08 1.05 0.97 0.94 0.89 0.88 0.90 0.88 0.89 0.88 0.87 0.94 0.92 0.95 1.00 1.00 1.00 1.00 1.01 1.10 1.04 1.03 0.96 0.93 1.00 1.14 1.31 1.34 1.28 1.27 1.45 1.60 1.69 1.59 1.57 1.55 1.54
2.05 2.16 2.05 1.70 1.39 1.27 1.36 1.39 1.13 1.10 1.13 0.96 0.94 0.92 0.87 0.80 0.78 0.74 0.77 0.82 0.81 0.79 0.81 0.83 0.87 0.85 0.92 0.99 1.01 1.11 1.15 1.18 1.13 1.10 1.02 1.01 1.08 1.21 1.41 1.52 1.52 1.46 1.50 1.56 1.55 1.65 1.68 1.67 1.68
1.72 1.61 1.50 1.45 1.21 1.15 1.20 1.06 0.94 0.97 0.97 0.87 0.76 0.69 0.68 0.69 0.64 0.62 0.66 0.71 0.73 0.77 0.78 0.76 0.80 0.81 0.84 0.97 1.06 1.24 1.38 1.37 1.36 1.25 1.16 1.20 1.36 1.53 1.68 1.69 1.78 1.80 1.73 1.74 1.71 1.77 1.74 1.68 1.74
1.11 1.23 1.27 1.18 0.90 0.93 0.97 0.87 0.86 0.87 0.86 0.79 0.69 0.58 0.56 0.59 0.56 0.55 0.59 0.65 0.67 0.72 0.76 0.77 0.74 0.80 0.84 0.88 1.02 1.26 1.52 1.63 1.74 1.63 1.41 1.35 1.49 1.79 2.06 2.01 2.09 2.16 2.11 2.08 2.06 2.29 2.25 1.99 1.80
1.07 1.28 1.26 1.13 0.80 0.76 0.82 0.76 0.68 0.69 0.74 0.64 0.60 0.58 0.52 0.52 0.48 0.46 0.48 0.53 0.57 0.59 0.66 0.72 0.72 0.78 0.81 0.85 1.03 1.21 1.36 1.37 1.53 1.63 1.57 1.48 1.47 1.66 1.84 2.12 2.27 2.25 2.40 2.51 2.47 2.83 2.98 2.48 2.04
1.05 1.09 1.06 1.03 0.84 0.75 0.75 0.82 0.64 0.58 0.60 0.55 0.49 0.50 0.46 0.47 0.48 0.46 0.45 0.49 0.50 0.50 0.51 0.55 0.61 0.69 0.81 0.92 1.13 1.35 1.58 1.67 1.67 1.56 1.64 1.64 1.54 1.61 1.75 1.91 2.07 2.12 2.29 2.48 2.60 2.91 3.45 3.22 2.55
0.99 0.72 0.66 0.73 0.96 1.04 0.84 1.07 0.75 0.62 0.65 0.57 0.47 0.43 0.40 0.43 0.46 0.55 0.51 0.51 0.48 0.48 0.50 0.54 0.64 0.78 0.97 1.15 1.36 1.58 1.77 1.83 1.69 1.67 1.70 1.59 1.49 1.48 1.61 1.75 1.87 2.02 2.08 2.27 2.36 2.49 3.08 3.50 3.16
0.66 0.57 0.55 0.64 0.87 0.87 0.66 0.81 0.73 0.61 0.73 0.66 0.54 0.46 0.41 0.41 0.44 0.48 0.49 0.53 0.56 0.58 0.65 0.70 0.86 1.08 1.33 1.52 1.77 2.05 2.01 1.89 1.79 1.72 1.69 1.64 1.62 1.57 1.58 1.75 1.81 1.84 1.93 2.07 2.41 2.69 2.98 3.24 3.28
0.48 0.57 0.64 0.73 0.94 0.95 0.58 0.68 0.75 0.58 0.60 0.66 0.60 0.50 0.42 0.38 0.45 0.55 0.64 0.75 0.84 0.88 1.05 1.26 1.49 1.63 1.72 1.83 1.96 2.07 2.04 2.03 1.98 1.78 1.67 1.64 1.68 1.73 1.73 1.78 1.80 1.78 1.82 1.95 2.21 2.54 2.78 3.11 3.35
0.50 0.87 1.26 1.30 1.27 0.91 0.46 0.66 0.74 0.53 0.45 0.51 0.53 0.44 0.38 0.40 0.50 0.66 0.85 0.99 1.14 1.32 1.49 1.62 1.78 1.93 1.89 1.84 1.89 1.93 1.92 1.89 1.88 1.81 1.72 1.65 1.62 1.67 1.69 1.75 1.87 1.93 1.98 2.11 2.29 2.47 2.43 2.62 3.06
0.54 0.80 1.30 1.45 1.19 0.82 0.59 0.86 0.80 0.57 0.45 0.40 0.33 0.30 0.40 0.55 0.68 0.81 0.89 1.03 1.22 1.43 1.53 1.54 1.63 1.75 1.75 1.70 1.68 1.68 1.72 1.72 1.67 1.58 1.54 1.59 1.66 1.63 1.56 1.59 1.70 1.80 1.97 2.03 2.11 2.17 2.14 2.25 2.51
0.53 0.58 0.64 0.93 0.78 0.77 0.78 0.91 0.81 0.54 0.46 0.41 0.36 0.38 0.54 0.75 0.95 1.12 1.24 1.37 1.43 1.52 1.61 1.52 1.52 1.59 1.60 1.56 1.52 1.55 1.54 1.58 1.58 1.49 1.48 1.48 1.49 1.41 1.29 1.28 1.35 1.44 1.50 1.59 1.75 1.86 1.95 2.03 2.16
0.42 0.55 0.75 1.11 1.26 1.22 1.07 1.05 0.95 0.72 0.61 0.64 0.70 0.78 0.83 0.94 1.19 1.50 1.79 1.96 1.81 1.58 1.52 1.51 1.44 1.45 1.56 1.59 1.53 1.50 1.58 1.58 1.55 1.53 1.46 1.44 1.46 1.38 1.26 1.18 1.15 1.14 1.11 1.14 1.33 1.52 1.64 1.75 1.90
0.43 0.60 0.78 1.03 1.15 1.46 1.64 1.51 1.14 1.13 1.12 1.16 1.24 1.27 1.28 1.37 1.35 1.52 1.76 1.95 1.89 1.59 1.35 1.39 1.47 1.49 1.52 1.52 1.53 1.53 1.51 1.41 1.39 1.41 1.39 1.35 1.36 1.42 1.38 1.25 1.17 1.24 1.24 1.20 1.26 1.29 1.35 1.43 1.57
0.53 0.69 0.89 1.29 1.21 1.19 1.49 1.53 1.19 1.17 1.20 1.28 1.43 1.47 1.47 1.39 1.28 1.28 1.35 1.42 1.51 1.41 1.20 1.16 1.31 1.43 1.44 1.43 1.46 1.47 1.37 1.27 1.27 1.27 1.19 1.06 0.99 1.00 1.12 1.24 1.15 1.11 1.12 1.15 1.21 1.22 1.27 1.32 1.42

GEFSSGP_prec_meanprecacc_348.txt.gz
Total_Precipitation_Accumulation
1.68 1.70 2.66 3.93 4.72 3.78 3.26 3.04 2.59 2.27 1.72 1.36 1.12 1.16 1.62 2.04 2.29 2.66 2.70 2.75 1.82 1.58 1.86 2.51 3.28 3.17 2.94 2.89 2.93 2.85 2.73 2.53 2.46 2.50 2.48 2.41 2.40 2.37 2.29 2.31 2.29 2.36 2.27 2.16 2.35 2.65 2.64 2.59 2.60
1.31 2.09 3.30 4.51 4.18 3.23 3.26 2.95 2.53 2.09 1.51 1.12 0.90 0.89 1.01 0.98 0.90 1.48 2.73 2.90 1.74 1.43 1.65 1.98 2.93 2.94 2.91 2.92 2.74 2.69 2.48 2.24 2.16 2.21 2.22 2.22 2.31 2.49 2.56 2.51 2.49 2.50 2.27 2.09 2.14 2.54 2.61 2.56 2.43
1.77 2.82 3.95 4.25 3.26 3.00 3.27 2.94 2.35 1.55 1.13 0.99 0.92 0.81 0.91 1.20 1.22 1.81 2.61 2.17 1.62 1.46 1.72 2.44 3.09 2.89 2.85 2.74 2.54 2.53 2.44 2.24 2.12 2.10 2.12 2.24 2.45 2.60 2.61 2.64 2.58 2.50 2.29 2.16 2.24 2.60 2.50 2.44 2.36
2.30 3.37 3.80 3.47 2.85 2.54 2.53 2.46 2.02 1.50 1.13 0.81 0.80 0.93 0.92 1.32 1.49 1.80 1.96 1.59 1.47 1.51 1.76 2.48 2.92 2.66 2.55 2.51 2.44 2.35 2.39 2.41 2.21 2.04 2.12 2.36 2.75 2.78 2.79 2.78 2.51 2.44 2.32 2.34 2.41 2.58 2.54 2.46 2.43
2.73 3.44 3.51 3.22 2.82 2.52 2.11 1.92 1.80 1.67 1.32 0.94 0.89 1.13 1.45 1.94 1.79 1.64 1.62 1.43 1.31 1.30 1.49 2.08 2.67 2.46 2.36 2.33 2.31 2.22 2.27 2.39 2.29 2.07 2.23 2.53 2.91 2.96 2.88 2.68 2.43 2.42 2.41 2.47 2.66 2.68 2.69 2.57 2.42
3.22 3.18 3.34 3.25 3.03 2.69 2.25 1.67 1.50 1.53 1.23 1.00 0.99 1.21 1.92 2.36 2.13 1.95 1.63 1.64 1.46 1.30 1.28 1.55 2.14 2.30 2.18 2.18 2.30 2.23 2.21 2.29 2.22 2.14 2.19 2.40 2.89 2.94 2.86 2.69 2.49 2.38 2.44 2.65 2.96 2.87 2.72 2.50 2.40
3.13 3.03 3.05 2.69 2.78 2.99 2.33 1.44 1.49 1.50 1.38 1.16 0.90 1.20 1.82 2.19 1.94 1.81 1.60 1.60 1.65 1.58 1.45 1.35 1.45 1.71 1.92 2.05 2.18 2.20 2.17 2.10 2.00 2.10 2.17 2.51 3.00 2.84 2.70 2.63 2.56 2.49 2.56 2.66 2.83 2.70 2.56 2.50 2.49
2.51 2.63 2.58 2.56 2.77 2.93 2.09 1.29 1.17 1.38 1.34 0.93 0.97 1.34 1.64 1.64 1.52 1.50 1.56 1.72 1.72 1.70 1.55 1.33 1.22 1.29 1.53 1.65 1.83 2.08 2.14 2.04 1.91 1.98 2.15 2.47 2.98 2.81 2.60 2.47 2.67 2.83 2.87 2.99 3.02 2.76 2.55 2.53 2.42
2.09 2.62 2.92 2.92 2.82 2.48 1.69 1.36 1.10 0.99 0.99 0.91 0.92 1.03 1.15 1.05 1.15 1.31 1.36 1.42 1.56 1.51 1.38 1.24 1.18 1.23 1.36 1.48 1.57 1.94 1.98 1.86 1.68 1.67 1.97 2.13 2.41 2.43 2.48 2.57 2.90 2.91 2.91 2.98 3.04 2.97 2.70 2.39 2.27
2.16 2.62 2.65 2.12 1.72 1.65 1.42 1.27 1.13 1.21 1.27 1.09 1.06 1.07 1.10 1.11 1.16 1.19 1.19 1.23 1.26 1.20 1.07 1.03 1.02 1.10 1.22 1.28 1.66 2.00 1.78 1.69 1.48 1.51 1.59 1.77 2.14 2.45 2.19 2.46 2.94 2.90 2.81 2.73 2.87 2.87 2.46 1.95 1.66
1.76 2.16 1.82 1.55 1.27 1.09 1.14 1.14 0.91 1.12 1.35 1.15 1.10 1.07 1.11 1.22 1.20 1.22 1.19 1.07 1.03 0.95 0.87 0.82 0.74 0.74 0.82 1.08 1.44 1.76 1.90 1.91 1.90 1.72 1.63 1.73 1.65 1.80 1.70 1.68 1.89 1.99 2.04 1.98 2.14 2.27 1.97 1.68 1.60
1.66 1.62 1.45 1.43 1.06 1.03 1.02 0.97 0.92 0.99 1.11 0.99 1.04 0.96 0.96 1.07 1.10 1.09 1.13 1.05 0.93 0.89 0.84 0.74 0.70 0.66 0.68 0.76 0.96 1.20 1.38 1.49 1.59 1.52 1.39 1.55 1.53 1.59 1.60 1.52 1.42 1.39 1.48 1.64 1.68 1.84 1.85 1.64 1.53
1.73 1.70 1.39 1.14 1.02 0.96 0.88 0.86 0.88 0.99 0.94 0.83 0.94 1.01 1.05 1.05 1.07 1.12 1.19 1.19 1.03 1.01 0.97 0.86 0.75 0.72 0.72 0.78 0.83 0.90 1.08 1.21 1.26 1.35 1.31 1.38 1.53 1.58 1.55 1.38 1.31 1.19 1.26 1.39 1.52 1.57 1.64 1.68 1.64
1.55 1.53 1.56 1.38 1.17 1.05 1.02 0.90 0.81 1.01 0.97 0.92 1.01 1.10 1.07 1.09 1.00 0.99 1.06 1.16 1.15 1.11 1.04 1.00 0.89 0.86 0.82 0.80 0.83 0.89 0.96 1.01 1.05 1.06 1.07 1.23 1.46 1.48 1.52 1.45 1.43 1.34 1.33 1.43 1.44 1.38 1.53 1.71 1.66
1.41 1.69 1.73 1.57 1.28 1.13 1.15 1.29 1.01 0.96 1.02 1.05 1.16 1.10 1.01 1.03 0.98 0.94 0.94 1.00 1.07 1.07 1.00 1.01 1.00 1.01 1.00 0.96 0.90 0.87 0.96 1.04 1.04 1.00 0.93 0.99 1.20 1.30 1.38 1.39 1.33 1.35 1.46 1.51 1.56 1.39 1.44 1.50 1.52
1.79 2.20 2.37 1.74 1.45 1.22 1.41 1.65 1.18 1.09 1.13 1.08 1.10 1.06 0.98 0.95 0.91 0.89 0.91 0.89 0.89 0.89 0.88 0.95 0.93 0.97 1.03 1.04 1.04 1.06 1.05 1.12 1.07 1.05 0.97 0.93 1.02 1.17 1.33 1.36 1.29 1.29 1.47 1.62 1.71 1.60 1.59 1.57 1.56
2.08 2.19 2.10 1.75 1.41 1.29 1.37 1.40 1.15 1.12 1.14 0.97 0.96 0.93 0.88 0.82 0.79 0.75 0.78 0.82 0.82 0.80 0.82 0.83 0.87 0.86 0.94 1.01 1.03 1.15 1.18 1.20 1.15 1.12 1.03 1.02 1.09 1.23 1.43 1.54 1.53 1.47 1.51 1.57 1.56 1.66 1.69 1.68 1.68
1.76 1.65 1.54 1.50 1.23 1.17 1.21 1.07 0.95 0.98 0.99 0.88 0.79 0.72 0.70 0.70 0.65 0.63 0.67 0.72 0.74 0.77 0.78 0.77 0.80 0.81 0.85 0.97 1.07 1.26 1.40 1.39 1.39 1.27 1.17 1.21 1.37 1.54 1.70 1.71 1.80 1.82 1.74 1.76 1.72 1.78 1.76 1.69 1.75
1.14 1.26 1.30 1.21 0.92 0.94 0.98 0.88 0.87 0.87 0.87 0.80 0.70 0.60 0.57 0.59 0.57 0.55 0.59 0.65 0.68 0.72 0.76 0.77 0.74 0.81 0.85 0.90 1.04 1.28 1.55 1.66 1.78 1.66 1.42 1.36 1.50 1.80 2.08 2.04 2.11 2.18 2.12 2.10 2.07 2.31 2.26 1.99 1.81
1.09 1.31 1.29 1.16 0.82 0.78 0.83 0.76 0.69 0.70 0.74 0.65 0.61 0.59 0.53 0.53 0.48 0.46 0.49 0.53 0.57 0.59 0.67 0.72 0.72 0.78 0.81 0.86 1.05 1.23 1.38 1.39 1.55 1.65 1.59 1.50 1.48 1.67 1.86 2.14 2.30 2.27 2.42 2.52 2.49 2.85 2.99 2.49 2.05
1.07 1.11 1.08 1.04 0.86 0.77 0.76 0.83 0.64 0.58 0.60 0.55 0.49 0.51 0.47 0.48 0.49 0.47 0.45 0.49 0.51 0.50 0.51 0.55 0.61 0.70 0.82 0.93 1.15 1.37 1.60 1.68 1.69 1.58 1.65 1.65 1.55 1.62 1.76 1.92 2.09 2.15 2.31 2.50 2.61 2.92 3.46 3.23 2.55
1.01 0.74 0.67 0.74 0.97 1.05 0.85 1.08 0.75 0.62 0.66 0.57 0.48 0.44 0.42 0.44 0.48 0.56 0.52 0.52 0.49 0.48 0.50 0.54 0.64 0.79 0.98 1.17 1.38 1.60 1.79 1.84 1.71 1.69 1.72 1.60 1.51 1.49 1.62 1.75 1.88 2.03 2.10 2.30 2.38 2.51 3.09 3.51 3.17
0.68 0.59 0.57 0.65 0.88 0.89 0.68 0.83 0.75 0.62 0.73 0.66 0.54 0.47 0.42 0.42 0.45 0.49 0.50 0.54 0.57 0.59 0.66 0.71 0.86 1.09 1.34 1.53 1.78 2.07 2.03 1.91 1.82 1.75 1.71 1.66 1.64 1.59 1.59 1.76 1.82 1.85 1.94 2.09 2.44 2.71 3.00 3.25 3.29
0.49 0.60 0.67 0.75 0.96 0.97 0.60 0.70 0.76 0.59 0.61 0.66 0.60 0.51 0.42 0.39 0.46 0.56 0.64 0.76 0.85 0.89 1.06 1.27 1.50 1.64 1.74 1.84 1.97 2.09 2.06 2.06 2.02 1.81 1.69 1.67 1.70 1.75 1.75 1.80 1.82 1.79 1.84 1.97 2.24 2.57 2.81 3.13 3.35
0.52 0.90 1.30 1.33 1.30 0.93 0.47 0.67 0.75 0.54 0.46 0.51 0.54 0.44 0.38 0.40 0.51 0.67 0.86 1.00 1.15 1.33 1.50 1.63 1.78 1.93 1.90 1.86 1.92 1.97 1.97 1.95 1.95 1.87 1.77 1.68 1.65 1.68 1.70 1.76 1.89 1.96 2.00 2.12 2.31 2.50 2.45 2.65 3.08
0.55 0.82 1.33 1.48 1.21 0.83 0.60 0.87 0.80 0.58 0.45 0.40 0.34 0.30 0.41 0.56 0.69 0.81 0.90 1.04 1.24 1.45 1.54 1.55 1.63 1.75 1.76 1.72 1.71 1.71 1.76 1.78 1.73 1.64 1.60 1.64 1.71 1.66 1.58 1.61 1.72 1.83 2.00 2.06 2.14 2.19 2.16 2.27 2.52
0.53 0.59 0.65 0.94 0.79 0.78 0.79 0.91 0.81 0.54 0.47 0.41 0.36 0.38 0.54 0.76 0.96 1.12 1.24 1.38 1.44 1.52 1.62 1.52 1.53 1.60 1.61 1.58 1.55 1.59 1.57 1.62 1.62 1.53 1.53 1.54 1.56 1.46 1.33 1.30 1.37 1.46 1.53 1.64 1.80 1.89 1.98 2.05 2.17
0.43 0.57 0.76 1.12 1.27 1.23 1.08 1.06 0.96 0.72 0.62 0.64 0.70 0.78 0.84 0.94 1.20 1.50 1.79 1.97 1.81 1.59 1.53 1.52 1.45 1.46 1.59 1.63 1.58 1.56 1.61 1.61 1.57 1.57 1.48 1.46 1.50 1.43 1.33 1.24 1.18 1.17 1.15 1.19 1.39 1.57 1.67 1.77 1.91
0.45 0.61 0.78 1.03 1.16 1.47 1.64 1.51 1.14 1.13 1.12 1.16 1.24 1.27 1.28 1.37 1.35 1.52 1.76 1.96 1.90 1.60 1.36 1.40 1.48 1.51 1.56 1.57 1.58 1.57 1.54 1.43 1.40 1.43 1.40 1.37 1.38 1.44 1.41 1.29 1.21 1.29 1.29 1.24 1.31 1.33 1.38 1.45 1.58
0.55 0.69 0.90 1.29 1.22 1.19 1.49 1.54 1.19 1.17 1.20 1.28 1.43 1.48 1.48 1.39 1.29 1.29 1.35 1.43 1.52 1.42 1.22 1.18 1.33 1.46 1.46 1.45 1.48 1.49 1.39 1.29 1.29 1.28 1.21 1.08 1.00 1.01 1.14 1.26 1.19 1.16 1.18 1.22 1.28 1.28 1.31 1.35 1.43

GEFSSGP_prec_meanprecacc_354.txt.gz
Total_Precipitation_Accumulation
1.69 1.71 2.67 3.94 4.73 3.78 3.26 3.04 2.60 2.29 1.73 1.38 1.15 1.19 1.64 2.05 2.30 2.67 2.72 2.79 1.85 1.61 1.90 2.58 3.37 3.24 3.01 2.97 3.02 2.95 2.92 2.73 2.62 2.65 2.56 2.49 2.48 2.44 2.36 2.38 2.37 2.43 2.34 2.22 2.41 2.70 2.70 2.66 2.69
1.32 2.10 3.32 4.52 4.18 3.24 3.27 2.96 2.55 2.11 1.52 1.13 0.92 0.90 1.02 0.99 0.91 1.49 2.75 2.94 1.78 1.45 1.68 2.05 3.02 3.02 2.99 2.99 2.82 2.78 2.63 2.36 2.27 2.34 2.30 2.30 2.39 2.57 2.64 2.61 2.59 2.59 2.35 2.15 2.21 2.61 2.68 2.62 2.48
1.78 2.84 3.98 4.27 3.27 3.00 3.28 2.95 2.36 1.56 1.14 1.00 0.92 0.82 0.92 1.21 1.23 1.82 2.63 2.20 1.65 1.49 1.77 2.52 3.17 2.98 2.95 2.83 2.63 2.60 2.51 2.30 2.19 2.17 2.18 2.30 2.53 2.67 2.69 2.74 2.68 2.59 2.36 2.22 2.29 2.66 2.56 2.49 2.41
2.31 3.40 3.82 3.48 2.86 2.56 2.54 2.46 2.03 1.50 1.14 0.81 0.80 0.94 0.93 1.33 1.51 1.82 1.99 1.62 1.50 1.55 1.82 2.55 2.99 2.74 2.63 2.59 2.52 2.42 2.46 2.47 2.26 2.10 2.18 2.44 2.82 2.85 2.88 2.89 2.61 2.52 2.39 2.40 2.46 2.62 2.57 2.49 2.46
2.75 3.46 3.52 3.23 2.83 2.52 2.12 1.93 1.80 1.67 1.32 0.95 0.89 1.14 1.46 1.96 1.82 1.67 1.65 1.46 1.34 1.35 1.54 2.14 2.73 2.51 2.40 2.38 2.37 2.28 2.34 2.46 2.36 2.15 2.31 2.60 2.97 3.03 2.96 2.78 2.52 2.50 2.48 2.55 2.72 2.72 2.73 2.61 2.46
3.24 3.20 3.35 3.26 3.04 2.70 2.27 1.67 1.51 1.53 1.23 1.01 0.99 1.21 1.94 2.39 2.16 1.97 1.65 1.66 1.49 1.33 1.32 1.59 2.19 2.35 2.22 2.21 2.34 2.28 2.26 2.34 2.28 2.21 2.26 2.46 2.94 3.01 2.94 2.77 2.56 2.44 2.50 2.71 3.00 2.91 2.76 2.54 2.44
3.15 3.04 3.06 2.70 2.79 3.01 2.33 1.45 1.50 1.50 1.38 1.16 0.91 1.21 1.84 2.22 1.97 1.82 1.62 1.62 1.67 1.62 1.49 1.40 1.50 1.75 1.96 2.09 2.23 2.25 2.21 2.14 2.05 2.16 2.25 2.61 3.10 2.93 2.78 2.71 2.63 2.55 2.62 2.71 2.88 2.75 2.59 2.54 2.53
2.53 2.64 2.59 2.57 2.78 2.94 2.10 1.29 1.17 1.39 1.34 0.93 0.97 1.34 1.65 1.66 1.54 1.52 1.58 1.74 1.75 1.74 1.59 1.36 1.26 1.32 1.56 1.69 1.88 2.13 2.18 2.08 1.95 2.03 2.21 2.54 3.06 2.87 2.65 2.52 2.71 2.92 3.02 3.09 3.08 2.81 2.59 2.57 2.45
2.11 2.63 2.92 2.93 2.82 2.48 1.70 1.36 1.11 0.99 1.00 0.91 0.92 1.04 1.16 1.06 1.17 1.33 1.38 1.44 1.58 1.55 1.42 1.28 1.21 1.27 1.39 1.52 1.60 1.98 2.03 1.90 1.71 1.70 2.00 2.16 2.44 2.46 2.51 2.59 2.92 2.94 2.95 3.04 3.10 3.02 2.74 2.42 2.29
2.18 2.63 2.65 2.12 1.72 1.65 1.42 1.27 1.13 1.21 1.28 1.09 1.06 1.07 1.11 1.12 1.17 1.20 1.20 1.24 1.28 1.24 1.11 1.07 1.04 1.12 1.25 1.30 1.68 2.02 1.80 1.71 1.49 1.52 1.60 1.78 2.16 2.47 2.21 2.50 2.98 2.93 2.84 2.76 2.90 2.89 2.48 1.97 1.68
1.77 2.17 1.82 1.56 1.28 1.09 1.15 1.14 0.91 1.12 1.35 1.15 1.11 1.08 1.12 1.23 1.21 1.22 1.19 1.08 1.04 0.98 0.89 0.83 0.76 0.76 0.84 1.10 1.45 1.78 1.92 1.92 1.91 1.73 1.64 1.74 1.67 1.82 1.73 1.72 1.93 2.03 2.07 2.01 2.16 2.28 1.98 1.69 1.61
1.67 1.63 1.46 1.44 1.06 1.03 1.02 0.97 0.93 0.99 1.11 0.99 1.05 0.96 0.97 1.09 1.12 1.10 1.14 1.06 0.95 0.90 0.85 0.76 0.72 0.68 0.69 0.78 0.99 1.24 1.40 1.51 1.60 1.52 1.40 1.57 1.55 1.61 1.64 1.57 1.48 1.43 1.51 1.67 1.72 1.88 1.87 1.67 1.56
1.75 1.71 1.39 1.15 1.02 0.97 0.89 0.87 0.88 1.00 0.94 0.84 0.95 1.02 1.06 1.07 1.08 1.13 1.19 1.20 1.04 1.02 0.98 0.88 0.77 0.74 0.74 0.80 0.86 0.95 1.11 1.23 1.27 1.35 1.32 1.39 1.55 1.61 1.59 1.43 1.35 1.24 1.31 1.45 1.56 1.61 1.69 1.74 1.69
1.57 1.55 1.57 1.39 1.18 1.06 1.03 0.90 0.81 1.03 0.99 0.93 1.02 1.11 1.08 1.10 1.01 1.00 1.07 1.16 1.16 1.12 1.05 1.01 0.90 0.87 0.84 0.81 0.84 0.91 0.99 1.03 1.05 1.06 1.08 1.24 1.47 1.50 1.55 1.48 1.46 1.39 1.38 1.48 1.47 1.41 1.58 1.76 1.71
1.44 1.71 1.75 1.57 1.29 1.14 1.16 1.30 1.02 0.97 1.04 1.06 1.17 1.11 1.03 1.05 0.99 0.95 0.94 1.00 1.08 1.08 1.01 1.02 1.01 1.02 1.01 0.98 0.91 0.89 1.01 1.10 1.06 1.02 0.95 1.00 1.21 1.31 1.40 1.42 1.36 1.37 1.47 1.52 1.57 1.41 1.46 1.52 1.55
1.81 2.23 2.40 1.75 1.45 1.22 1.41 1.66 1.19 1.10 1.14 1.10 1.11 1.08 1.00 0.97 0.94 0.91 0.93 0.90 0.90 0.90 0.89 0.95 0.93 0.98 1.04 1.05 1.05 1.08 1.08 1.15 1.09 1.07 1.00 0.96 1.05 1.18 1.34 1.37 1.31 1.30 1.47 1.62 1.71 1.61 1.60 1.58 1.59
2.11 2.22 2.12 1.76 1.41 1.29 1.37 1.40 1.15 1.12 1.15 0.99 0.98 0.95 0.89 0.84 0.82 0.77 0.80 0.84 0.84 0.81 0.83 0.84 0.87 0.86 0.94 1.01 1.03 1.15 1.19 1.22 1.17 1.15 1.06 1.04 1.11 1.25 1.44 1.56 1.55 1.50 1.52 1.57 1.56 1.66 1.69 1.69 1.70
1.79 1.67 1.56 1.52 1.25 1.17 1.21 1.07 0.95 0.99 1.00 0.90 0.80 0.73 0.71 0.71 0.66 0.64 0.68 0.73 0.75 0.78 0.79 0.77 0.80 0.81 0.85 0.98 1.07 1.26 1.40 1.40 1.40 1.29 1.20 1.23 1.39 1.56 1.72 1.73 1.82 1.85 1.77 1.76 1.72 1.78 1.76 1.69 1.77
1.17 1.28 1.32 1.24 0.94 0.95 0.99 0.88 0.88 0.88 0.88 0.81 0.71 0.60 0.58 0.60 0.58 0.56 0.61 0.68 0.69 0.73 0.76 0.77 0.75 0.81 0.85 0.90 1.04 1.29 1.55 1.66 1.79 1.68 1.45 1.38 1.51 1.82 2.10 2.07 2.14 2.21 2.15 2.11 2.08 2.31 2.26 2.00 1.82
1.11 1.33 1.31 1.18 0.84 0.79 0.84 0.77 0.69 0.70 0.75 0.65 0.62 0.59 0.54 0.54 0.49 0.48 0.50 0.56 0.58 0.60 0.67 0.72 0.72 0.79 0.82 0.87 1.05 1.23 1.39 1.39 1.55 1.67 1.61 1.51 1.50 1.69 1.88 2.19 2.34 2.30 2.44 2.54 2.50 2.86 3.00 2.49 2.06
1.09 1.12 1.09 1.06 0.87 0.78 0.77 0.84 0.65 0.58 0.61 0.55 0.49 0.52 0.48 0.49 0.50 0.48 0.47 0.51 0.52 0.51 0.51 0.56 0.62 0.71 0.83 0.95 1.16 1.38 1.61 1.69 1.69 1.59 1.67 1.67 1.57 1.64 1.78 1.95 2.13 2.19 2.35 2.52 2.63 2.94 3.48 3.24 2.56
1.02 0.75 0.69 0.76 0.99 1.07 0.87 1.09 0.76 0.62 0.66 0.57 0.48 0.44 0.42 0.45 0.49 0.57 0.55 0.55 0.51 0.50 0.51 0.55 0.65 0.80 1.00 1.19 1.40 1.61 1.80 1.86 1.72 1.71 1.74 1.62 1.53 1.51 1.63 1.77 1.91 2.06 2.14 2.33 2.42 2.53 3.11 3.52 3.18
0.70 0.61 0.58 0.67 0.90 0.90 0.69 0.84 0.75 0.62 0.73 0.66 0.54 0.47 0.42 0.42 0.45 0.50 0.52 0.58 0.61 0.62 0.68 0.73 0.88 1.11 1.35 1.55 1.80 2.08 2.05 1.94 1.85 1.77 1.73 1.68 1.66 1.60 1.61 1.78 1.85 1.87 1.98 2.15 2.48 2.75 3.03 3.28 3.32
0.51 0.62 0.70 0.76 0.98 0.98 0.61 0.71 0.77 0.59 0.61 0.66 0.60 0.51 0.43 0.39 0.46 0.57 0.66 0.79 0.90 0.94 1.09 1.29 1.52 1.66 1.76 1.87 2.00 2.11 2.08 2.09 2.05 1.84 1.72 1.70 1.73 1.77 1.76 1.81 1.84 1.81 1.86 2.00 2.29 2.62 2.86 3.17 3.41
0.54 0.93 1.33 1.35 1.32 0.94 0.48 0.68 0.75 0.54 0.46 0.51 0.54 0.44 0.38 0.40 0.52 0.68 0.87 1.02 1.17 1.36 1.53 1.65 1.80 1.94 1.91 1.88 1.94 1.99 1.99 1.98 1.99 1.92 1.83 1.75 1.70 1.72 1.73 1.78 1.90 1.97 2.01 2.14 2.34 2.54 2.51 2.71 3.15
0.57 0.84 1.35 1.50 1.22 0.84 0.61 0.87 0.80 0.58 0.45 0.40 0.34 0.30 0.41 0.56 0.69 0.82 0.91 1.05 1.25 1.46 1.55 1.56 1.64 1.76 1.77 1.74 1.73 1.74 1.78 1.79 1.76 1.68 1.66 1.71 1.79 1.74 1.64 1.64 1.73 1.84 2.01 2.07 2.15 2.21 2.19 2.32 2.58
0.55 0.61 0.66 0.96 0.80 0.79 0.80 0.92 0.81 0.54 0.47 0.41 0.36 0.38 0.54 0.76 0.96 1.12 1.25 1.39 1.45 1.54 1.63 1.53 1.54 1.60 1.62 1.59 1.57 1.61 1.59 1.64 1.64 1.56 1.56 1.58 1.60 1.50 1.37 1.33 1.40 1.48 1.55 1.66 1.81 1.90 2.00 2.09 2.22
0.44 0.58 0.78 1.14 1.29 1.24 1.08 1.06 0.96 0.72 0.62 0.64 0.70 0.78 0.84 0.94 1.20 1.51 1.80 1.97 1.82 1.59 1.54 1.53 1.47 1.48 1.60 1.65 1.61 1.59 1.63 1.63 1.59 1.59 1.51 1.49 1.53 1.46 1.35 1.26 1.21 1.20 1.18 1.21 1.41 1.59 1.70 1.81 1.95
0.46 0.63 0.80 1.06 1.18 1.48 1.65 1.51 1.14 1.13 1.12 1.16 1.24 1.27 1.28 1.37 1.35 1.53 1.76 1.96 1.91 1.61 1.37 1.42 1.50 1.53 1.59 1.59 1.61 1.60 1.56 1.44 1.42 1.44 1.42 1.39 1.40 1.46 1.43 1.31 1.23 1.32 1.33 1.29 1.34 1.36 1.41 1.49 1.61
0.55 0.70 0.91 1.31 1.23 1.20 1.50 1.54 1.19 1.17 1.21 1.29 1.43 1.48 1.48 1.39 1.29 1.29 1.36 1.44 1.54 1.44 1.25 1.21 1.36 1.48 1.49 1.47 1.51 1.52 1.41 1.31 1.30 1.29 1.22 1.10 1.02 1.04 1.16 1.29 1.20 1.18 1.21 1.25 1.31 1.31 1.34 1.39 1.47

GEFSSGP_prec_meanprecacc_360.txt.gz
Total_Precipitation_Accumulation
1.71 1.72 2.67 3.94 4.73 3.78 3.27 3.05 2.61 2.30 1.75 1.40 1.16 1.21 1.65 2.06 2.30 2.68 2.75 2.83 1.89 1.66 1.96 2.68 3.54 3.45 3.23 3.12 3.13 3.18 3.35 3.10 2.84 2.76 2.64 2.57 2.56 2.51 2.43 2.44 2.44 2.49 2.40 2.28 2.47 2.76 2.76 2.73 2.78
1.32 2.10 3.32 4.52 4.18 3.24 3.28 2.97 2.57 2.13 1.54 1.15 0.93 0.92 1.04 1.00 0.92 1.52 2.80 2.98 1.82 1.50 1.74 2.12 3.11 3.14 3.09 3.06 2.93 3.10 2.95 2.64 2.53 2.50 2.40 2.38 2.49 2.65 2.71 2.68 2.67 2.66 2.41 2.21 2.29 2.70 2.75 2.69 2.56
1.78 2.84 3.99 4.28 3.27 3.01 3.30 2.97 2.38 1.57 1.14 1.01 0.93 0.83 0.94 1.23 1.26 1.87 2.68 2.24 1.69 1.52 1.82 2.59 3.24 3.07 3.04 2.91 2.76 2.79 2.63 2.48 2.39 2.29 2.29 2.40 2.62 2.76 2.76 2.83 2.77 2.67 2.42 2.28 2.35 2.71 2.60 2.53 2.46
2.31 3.40 3.83 3.49 2.87 2.56 2.55 2.48 2.04 1.50 1.14 0.81 0.81 0.95 0.95 1.37 1.55 1.87 2.03 1.65 1.52 1.58 1.85 2.59 3.04 2.81 2.72 2.67 2.63 2.55 2.58 2.60 2.37 2.20 2.28 2.55 2.94 2.97 2.98 2.98 2.69 2.59 2.45 2.44 2.50 2.65 2.60 2.52 2.48
2.75 3.46 3.53 3.24 2.84 2.53 2.13 1.94 1.81 1.67 1.33 0.95 0.89 1.14 1.48 2.01 1.87 1.72 1.69 1.50 1.37 1.37 1.57 2.19 2.78 2.57 2.45 2.42 2.45 2.37 2.42 2.53 2.43 2.24 2.41 2.71 3.10 3.20 3.12 2.89 2.60 2.57 2.54 2.60 2.76 2.75 2.76 2.65 2.49
3.24 3.20 3.35 3.27 3.05 2.71 2.27 1.68 1.51 1.53 1.23 1.01 0.99 1.22 1.96 2.44 2.21 2.02 1.69 1.69 1.50 1.35 1.35 1.64 2.24 2.41 2.26 2.24 2.37 2.32 2.30 2.39 2.34 2.28 2.33 2.55 3.04 3.13 3.06 2.88 2.67 2.54 2.59 2.79 3.07 2.97 2.81 2.60 2.49
3.15 3.04 3.06 2.70 2.79 3.01 2.34 1.45 1.50 1.51 1.39 1.17 0.91 1.21 1.86 2.25 2.00 1.86 1.66 1.66 1.71 1.63 1.52 1.43 1.54 1.80 2.00 2.13 2.26 2.29 2.27 2.20 2.10 2.21 2.31 2.69 3.20 3.03 2.87 2.79 2.71 2.64 2.73 2.81 2.96 2.84 2.68 2.62 2.59
2.54 2.65 2.60 2.58 2.79 2.95 2.10 1.30 1.18 1.39 1.34 0.93 0.98 1.35 1.66 1.67 1.56 1.55 1.61 1.77 1.80 1.78 1.62 1.39 1.29 1.36 1.60 1.73 1.93 2.17 2.23 2.13 2.00 2.07 2.26 2.59 3.12 2.94 2.71 2.58 2.79 3.04 3.15 3.20 3.17 2.90 2.68 2.64 2.50
2.11 2.64 2.94 2.95 2.84 2.50 1.70 1.37 1.11 0.99 1.00 0.91 0.92 1.04 1.16 1.07 1.18 1.35 1.40 1.47 1.63 1.61 1.47 1.31 1.23 1.29 1.43 1.56 1.65 2.03 2.07 1.94 1.77 1.76 2.06 2.21 2.50 2.50 2.55 2.63 2.97 3.02 3.05 3.13 3.18 3.09 2.81 2.47 2.33
2.18 2.63 2.66 2.13 1.73 1.66 1.43 1.27 1.13 1.21 1.28 1.10 1.06 1.08 1.11 1.13 1.17 1.20 1.22 1.26 1.32 1.29 1.17 1.11 1.08 1.15 1.27 1.33 1.72 2.06 1.83 1.75 1.54 1.56 1.64 1.82 2.19 2.49 2.23 2.53 3.02 2.99 2.91 2.82 2.95 2.93 2.51 1.99 1.70
1.77 2.17 1.83 1.57 1.28 1.09 1.15 1.14 0.92 1.12 1.36 1.15 1.11 1.08 1.12 1.23 1.22 1.23 1.20 1.09 1.07 1.02 0.93 0.86 0.80 0.79 0.87 1.13 1.50 1.84 1.97 1.96 1.95 1.77 1.66 1.76 1.68 1.84 1.75 1.74 1.96 2.06 2.10 2.03 2.19 2.30 2.00 1.71 1.63
1.67 1.63 1.46 1.44 1.07 1.03 1.03 0.97 0.93 0.99 1.11 0.99 1.05 0.97 0.97 1.09 1.12 1.10 1.14 1.06 0.96 0.92 0.87 0.77 0.73 0.70 0.70 0.80 1.03 1.30 1.47 1.55 1.63 1.55 1.43 1.58 1.57 1.62 1.66 1.59 1.50 1.45 1.52 1.68 1.73 1.89 1.89 1.68 1.58
1.75 1.71 1.40 1.16 1.03 0.97 0.89 0.87 0.88 1.00 0.95 0.84 0.95 1.02 1.07 1.07 1.09 1.13 1.20 1.20 1.05 1.02 0.99 0.89 0.78 0.75 0.75 0.81 0.88 0.99 1.18 1.25 1.29 1.38 1.35 1.42 1.57 1.63 1.61 1.44 1.39 1.28 1.33 1.46 1.58 1.63 1.71 1.76 1.73
1.57 1.55 1.57 1.40 1.18 1.06 1.03 0.91 0.82 1.04 0.99 0.93 1.02 1.12 1.08 1.10 1.01 1.00 1.07 1.17 1.17 1.13 1.06 1.01 0.90 0.88 0.85 0.82 0.86 0.93 1.01 1.07 1.10 1.12 1.12 1.27 1.49 1.52 1.57 1.50 1.50 1.45 1.43 1.53 1.52 1.44 1.60 1.79 1.73
1.44 1.72 1.75 1.58 1.29 1.14 1.16 1.31 1.03 0.98 1.05 1.07 1.17 1.12 1.04 1.07 1.01 0.96 0.95 1.01 1.08 1.08 1.02 1.02 1.01 1.02 1.02 0.99 0.92 0.90 1.03 1.18 1.14 1.07 0.98 1.02 1.22 1.33 1.42 1.47 1.43 1.43 1.51 1.54 1.60 1.43 1.49 1.53 1.56
1.82 2.24 2.41 1.75 1.46 1.22 1.42 1.67 1.20 1.11 1.15 1.11 1.12 1.09 1.02 0.98 0.95 0.92 0.94 0.90 0.90 0.90 0.89 0.95 0.93 0.98 1.04 1.05 1.05 1.09 1.10 1.17 1.13 1.10 1.03 0.99 1.08 1.21 1.37 1.41 1.35 1.32 1.49 1.63 1.73 1.63 1.61 1.59 1.60
2.12 2.24 2.13 1.77 1.42 1.29 1.38 1.41 1.15 1.12 1.16 1.00 0.99 0.96 0.91 0.85 0.83 0.79 0.83 0.85 0.85 0.82 0.84 0.84 0.87 0.86 0.95 1.01 1.03 1.15 1.20 1.23 1.19 1.17 1.09 1.09 1.17 1.28 1.46 1.57 1.56 1.52 1.54 1.59 1.58 1.67 1.70 1.70 1.71
1.80 1.68 1.57 1.54 1.26 1.17 1.21 1.08 0.96 0.99 1.01 0.91 0.81 0.74 0.72 0.72 0.67 0.65 0.70 0.75 0.77 0.81 0.81 0.78 0.81 0.81 0.85 0.98 1.08 1.26 1.40 1.40 1.40 1.30 1.23 1.27 1.43 1.58 1.74 1.75 1.83 1.87 1.78 1.77 1.74 1.79 1.77 1.70 1.78
1.18 1.30 1.33 1.25 0.95 0.96 0.99 0.89 0.88 0.88 0.89 0.82 0.72 0.61 0.59 0.60 0.58 0.57 0.62 0.70 0.71 0.75 0.77 0.79 0.76 0.82 0.85 0.90 1.04 1.29 1.55 1.66 1.79 1.69 1.45 1.39 1.52 1.84 2.13 2.10 2.16 2.23 2.16 2.12 2.09 2.32 2.27 2.00 1.83
1.13 1.35 1.32 1.19 0.84 0.79 0.85 0.77 0.69 0.70 0.75 0.66 0.62 0.60 0.54 0.54 0.50 0.48 0.51 0.57 0.60 0.61 0.68 0.73 0.73 0.80 0.83 0.88 1.06 1.23 1.39 1.40 1.56 1.68 1.61 1.52 1.51 1.71 1.90 2.21 2.37 2.34 2.46 2.55 2.51 2.87 3.01 2.50 2.07
1.10 1.14 1.11 1.08 0.88 0.78 0.78 0.84 0.65 0.58 0.61 0.55 0.50 0.52 0.49 0.50 0.51 0.49 0.47 0.52 0.54 0.52 0.53 0.58 0.63 0.71 0.84 0.96 1.17 1.39 1.62 1.70 1.70 1.60 1.68 1.68 1.58 1.65 1.79 1.97 2.16 2.26 2.38 2.54 2.65 2.96 3.49 3.26 2.58
1.04 0.76 0.70 0.77 1.01 1.08 0.88 1.10 0.76 0.63 0.66 0.57 0.48 0.44 0.42 0.45 0.49 0.58 0.55 0.56 0.53 0.52 0.54 0.58 0.67 0.81 1.00 1.19 1.40 1.61 1.80 1.86 1.73 1.72 1.75 1.63 1.54 1.52 1.65 1.79 1.93 2.11 2.18 2.36 2.43 2.55 3.12 3.55 3.21
0.71 0.61 0.59 0.68 0.92 0.91 0.69 0.84 0.75 0.62 0.73 0.66 0.54 0.47 0.42 0.42 0.45 0.51 0.53 0.59 0.62 0.65 0.72 0.78 0.91 1.12 1.36 1.55 1.81 2.09 2.06 1.95 1.86 1.78 1.74 1.69 1.67 1.61 1.62 1.80 1.86 1.89 2.01 2.17 2.50 2.76 3.04 3.30 3.34
0.51 0.64 0.72 0.78 1.00 1.00 0.61 0.71 0.77 0.59 0.61 0.66 0.60 0.51 0.43 0.39 0.46 0.58 0.67 0.80 0.92 0.98 1.15 1.35 1.56 1.68 1.77 1.87 2.01 2.13 2.09 2.10 2.06 1.85 1.73 1.70 1.74 1.78 1.77 1.82 1.85 1.82 1.87 2.01 2.31 2.64 2.87 3.19 3.43
0.56 0.96 1.38 1.40 1.35 0.96 0.48 0.68 0.75 0.54 0.46 0.52 0.54 0.44 0.38 0.41 0.52 0.69 0.88 1.04 1.20 1.39 1.59 1.72 1.85 1.98 1.93 1.89 1.95 2.00 2.00 1.99 2.00 1.93 1.84 1.76 1.72 1.73 1.74 1.79 1.91 1.97 2.02 2.15 2.35 2.55 2.52 2.72 3.16
0.59 0.86 1.40 1.54 1.25 0.85 0.61 0.88 0.81 0.58 0.45 0.41 0.34 0.30 0.41 0.56 0.69 0.82 0.92 1.06 1.27 1.49 1.60 1.63 1.72 1.83 1.80 1.75 1.74 1.74 1.78 1.80 1.76 1.69 1.67 1.73 1.81 1.76 1.65 1.65 1.74 1.84 2.02 2.09 2.16 2.22 2.20 2.34 2.60
0.58 0.62 0.69 0.99 0.82 0.80 0.80 0.92 0.81 0.54 0.47 0.41 0.36 0.38 0.54 0.76 0.96 1.13 1.25 1.39 1.46 1.55 1.66 1.57 1.61 1.69 1.68 1.62 1.58 1.62 1.59 1.64 1.64 1.56 1.57 1.59 1.62 1.53 1.39 1.35 1.40 1.49 1.55 1.66 1.83 1.92 2.01 2.11 2.24
0.47 0.60 0.80 1.16 1.31 1.26 1.09 1.06 0.96 0.72 0.62 0.64 0.70 0.78 0.84 0.94 1.20 1.51 1.80 1.98 1.82 1.60 1.55 1.55 1.51 1.55 1.68 1.70 1.63 1.60 1.64 1.63 1.59 1.60 1.52 1.50 1.55 1.48 1.37 1.28 1.22 1.21 1.18 1.22 1.42 1.61 1.72 1.83 1.98
0.49 0.66 0.83 1.08 1.19 1.49 1.66 1.52 1.14 1.13 1.12 1.16 1.24 1.27 1.28 1.37 1.35 1.53 1.76 1.97 1.91 1.62 1.39 1.43 1.52 1.58 1.65 1.63 1.63 1.62 1.57 1.45 1.43 1.46 1.44 1.41 1.42 1.47 1.45 1.33 1.24 1.33 1.34 1.31 1.37 1.39 1.44 1.52 1.64
0.58 0.74 0.94 1.33 1.24 1.21 1.51 1.55 1.19 1.17 1.21 1.29 1.43 1.48 1.48 1.39 1.29 1.29 1.36 1.44 1.54 1.45 1.27 1.23 1.38 1.50 1.52 1.50 1.54 1.54 1.43 1.32 1.31 1.30 1.24 1.11 1.04 1.04 1.17 1.29 1.21 1.20 1.22 1.27 1.35 1.35 1.38 1.43 1.51